Observation data for Goodnight on 12/09/2018      Previous  Date       Current Mesonet Observations  Soil Data  Daily Summary Page  Observations in Plain Language
KGO1 090600Z 34005KT M05/M09 A3031 RMK A01 T10521092  RH  074%=      5-min Rain = 0
KGO1 090601Z 34005KT M05/M09 A3031 RMK A01 T10531092  RH  074%=      5-min Rain = 0
KGO1 090602Z 34005KT M05/M09 A3031 RMK A01 T10531092  RH  074%=      5-min Rain = 0
KGO1 090603Z 35005KT M05/M09 A3031 RMK A01 T10541094  RH  073%=      5-min Rain = 0
KGO1 090604Z 35005KT M06/M10 A3031 RMK A01 T10561096  RH  073%=      5-min Rain = 0
KGO1 090605Z 35005KT M06/M10 A3031 RMK A01 T10571096  RH  074%=      5-min Rain = 0
KGO1 090606Z 36005KT M06/M10 A3031 RMK A01 T10581096  RH  074%=      5-min Rain = 0
KGO1 090607Z 36005KT M06/M09 A3031 RMK A01 T10561094  RH  074%=      5-min Rain = 0
KGO1 090608Z 36005KT M06/M09 A3031 RMK A01 T10551094  RH  074%=      5-min Rain = 0
KGO1 090609Z 36005KT M06/M09 A3031 RMK A01 T10551094  RH  074%=      5-min Rain = 0
KGO1 090610Z 35005KT M05/M09 A3031 RMK A01 T10531094  RH  073%=      5-min Rain = 0
KGO1 090611Z 35005KT M05/M09 A3031 RMK A01 T10521094  RH  072%=      5-min Rain = 0
KGO1 090612Z 35004KT M05/M10 A3031 RMK A01 T10511095  RH  071%=      5-min Rain = 0
KGO1 090613Z 35004KT M05/M10 A3031 RMK A01 T10511096  RH  071%=      5-min Rain = 0
KGO1 090614Z 34004KT M05/M10 A3031 RMK A01 T10511096  RH  070%=      5-min Rain = 0
KGO1 090615Z 34003KT M05/M10 A3031 RMK A01 T10501096  RH  070%=      5-min Rain = 0
KGO1 090616Z 33003KT M05/M10 A3031 RMK A01 T10501095  RH  071%=      5-min Rain = 0
KGO1 090617Z 33003KT M05/M10 A3031 RMK A01 T10521097  RH  071%=      5-min Rain = 0
KGO1 090618Z 33003KT M06/M10 A3032 RMK A01 T10551098  RH  072%=      5-min Rain = 0
KGO1 090619Z 32003KT M06/M10 A3032 RMK A01 T10571098  RH  073%=      5-min Rain = 0
KGO1 090620Z 32003KT M06/M10 A3032 RMK A01 T10581097  RH  073%=      5-min Rain = 0
KGO1 090621Z 31004KT M06/M10 A3032 RMK A01 T10581097  RH  074%=      5-min Rain = 0
KGO1 090622Z 31004KT M06/M10 A3032 RMK A01 T10591098  RH  074%=      5-min Rain = 0
KGO1 090623Z 31004KT M06/M10 A3032 RMK A01 T10591098  RH  074%=      5-min Rain = 0
KGO1 090624Z 31004KT M06/M10 A3032 RMK A01 T10601099  RH  074%=      5-min Rain = 0
KGO1 090625Z 31004KT M06/M10 A3032 RMK A01 T10611099  RH  075%=      5-min Rain = 0
KGO1 090626Z 31004KT M06/M10 A3032 RMK A01 T10631099  RH  076%=      5-min Rain = 0
KGO1 090627Z 32004KT M07/M10 A3031 RMK A01 T10661099  RH  077%=      5-min Rain = 0
KGO1 090628Z 32004KT M07/M10 A3031 RMK A01 T10671099  RH  078%=      5-min Rain = 0
KGO1 090629Z 32004KT M07/M10 A3032 RMK A01 T10681098  RH  079%=      5-min Rain = 0
KGO1 090630Z 31004KT M07/M10 A3032 RMK A01 T10691098  RH  080%=      5-min Rain = 0
KGO1 090631Z 31004KT M07/M10 A3032 RMK A01 T10691098  RH  080%=      5-min Rain = 0
KGO1 090632Z 32004KT M07/M10 A3032 RMK A01 T10691098  RH  080%=      5-min Rain = 0
KGO1 090633Z 32004KT M07/M10 A3032 RMK A01 T10691098  RH  080%=      5-min Rain = 0
KGO1 090634Z 32004KT M07/M10 A3032 RMK A01 T10701098  RH  080%=      5-min Rain = 0
KGO1 090635Z 32004KT M07/M10 A3032 RMK A01 T10701099  RH  080%=      5-min Rain = 0
KGO1 090636Z 32004KT M07/M10 A3032 RMK A01 T10701099  RH  079%=      5-min Rain = 0
KGO1 090637Z 32005KT M07/M10 A3032 RMK A01 T10681099  RH  079%=      5-min Rain = 0
KGO1 090638Z 32004KT M07/M10 A3032 RMK A01 T10661099  RH  078%=      5-min Rain = 0
KGO1 090639Z 32004KT M06/M10 A3032 RMK A01 T10641099  RH  076%=      5-min Rain = 0
KGO1 090640Z 32005KT M06/M10 A3032 RMK A01 T10621099  RH  075%=      5-min Rain = 0
KGO1 090641Z 32005KT M06/M10 A3032 RMK A01 T10611100  RH  074%=      5-min Rain = 0
KGO1 090642Z 32005KT M06/M10 A3032 RMK A01 T10591100  RH  073%=      5-min Rain = 0
KGO1 090643Z 33005KT M06/M10 A3031 RMK A01 T10581100  RH  072%=      5-min Rain = 0
KGO1 090644Z 33004KT M06/M10 A3031 RMK A01 T10561101  RH  071%=      5-min Rain = 0
KGO1 090645Z 32004KT M06/M10 A3031 RMK A01 T10561101  RH  071%=      5-min Rain = 0
KGO1 090646Z 31005KT M06/M10 A3031 RMK A01 T10571102  RH  071%=      5-min Rain = 0
KGO1 090647Z 30005KT M06/M10 A3031 RMK A01 T10591103  RH  071%=      5-min Rain = 0
KGO1 090648Z 29005KT M06/M10 A3031 RMK A01 T10631104  RH  072%=      5-min Rain = 0
KGO1 090649Z 29005KT M07/M10 A3031 RMK A01 T10651104  RH  074%=      5-min Rain = 0
KGO1 090650Z 30005KT M07/M10 A3031 RMK A01 T10651103  RH  075%=      5-min Rain = 0
KGO1 090651Z 29005KT M07/M10 A3031 RMK A01 T10651102  RH  075%=      5-min Rain = 0
KGO1 090652Z 30005KT M07/M10 A3031 RMK A01 T10671102  RH  076%=      5-min Rain = 0
KGO1 090653Z 30005KT M07/M10 A3031 RMK A01 T10681102  RH  077%=      5-min Rain = 0
KGO1 090654Z 30005KT M07/M10 A3031 RMK A01 T10691102  RH  077%=      5-min Rain = 0
KGO1 090655Z 30005KT M07/M10 A3031 RMK A01 T10691102  RH  077%=      5-min Rain = 0
KGO1 090656Z 31004KT M07/M10 A3031 RMK A01 T10691102  RH  077%=      5-min Rain = 0
KGO1 090657Z 32003KT M07/M10 A3031 RMK A01 T10691102  RH  077%=      5-min Rain = 0
KGO1 090658Z 32003KT M07/M10 A3031 RMK A01 T10691102  RH  077%=      5-min Rain = 0
KGO1 090659Z 31003KT M07/M10 A3031 RMK A01 T10691102  RH  077%=      5-min Rain = 0
KGO1 090700Z 31004KT M07/M10 A3031 RMK A01 T10681101  RH  077%=      5-min Rain = 0
KGO1 090701Z 31004KT M07/M10 A3031 RMK A01 T10671101  RH  077%=      5-min Rain = 0
KGO1 090702Z 30003KT M07/M10 A3031 RMK A01 T10671100  RH  077%=      5-min Rain = 0
KGO1 090703Z 29005KT M07/M10 A3031 RMK A01 T10671100  RH  077%=      5-min Rain = 0
KGO1 090704Z 29005KT M07/M10 A3031 RMK A01 T10691101  RH  078%=      5-min Rain = 0
KGO1 090705Z 29006KT M07/M10 A3031 RMK A01 T10691099  RH  079%=      5-min Rain = 0
KGO1 090706Z 29005KT M07/M10 A3031 RMK A01 T10671097  RH  079%=      5-min Rain = 0
KGO1 090707Z 30005KT M07/M10 A3031 RMK A01 T10651096  RH  079%=      5-min Rain = 0
KGO1 090708Z 30005KT M06/M10 A3031 RMK A01 T10641097  RH  078%=      5-min Rain = 0
KGO1 090709Z 30005KT M07/M10 A3031 RMK A01 T10651098  RH  077%=      5-min Rain = 0
KGO1 090710Z 30005KT M07/M10 A3031 RMK A01 T10661099  RH  078%=      5-min Rain = 0
KGO1 090711Z 29006KT M07/M10 A3031 RMK A01 T10671099  RH  078%=      5-min Rain = 0
KGO1 090712Z 29007KT M07/M10 A3031 RMK A01 T10671098  RH  079%=      5-min Rain = 0
KGO1 090713Z 29006KT M07/M10 A3031 RMK A01 T10671098  RH  079%=      5-min Rain = 0
KGO1 090714Z 29007KT M07/M10 A3031 RMK A01 T10681098  RH  079%=      5-min Rain = 0
KGO1 090715Z 29007KT M07/M10 A3031 RMK A01 T10671097  RH  079%=      5-min Rain = 0
KGO1 090716Z 29007KT M07/M10 A3031 RMK A01 T10671098  RH  079%=      5-min Rain = 0
KGO1 090717Z 29007KT M07/M10 A3031 RMK A01 T10681098  RH  079%=      5-min Rain = 0
KGO1 090718Z 29007KT M07/M10 A3031 RMK A01 T10681098  RH  079%=      5-min Rain = 0
KGO1 090719Z 29007KT M07/M10 A3031 RMK A01 T10681098  RH  079%=      5-min Rain = 0
KGO1 090720Z 29007KT M07/M10 A3031 RMK A01 T10681098  RH  079%=      5-min Rain = 0
KGO1 090721Z 29006KT M07/M10 A3031 RMK A01 T10681098  RH  079%=      5-min Rain = 0
KGO1 090722Z 29007KT M07/M10 A3031 RMK A01 T10681098  RH  079%=      5-min Rain = 0
KGO1 090723Z 29006KT M07/M10 A3031 RMK A01 T10681097  RH  080%=      5-min Rain = 0
KGO1 090724Z 30006KT M07/M10 A3031 RMK A01 T10681098  RH  080%=      5-min Rain = 0
KGO1 090725Z 30006KT M07/M10 A3031 RMK A01 T10681098  RH  080%=      5-min Rain = 0
KGO1 090726Z 30005KT M07/M10 A3031 RMK A01 T10681097  RH  080%=      5-min Rain = 0
KGO1 090727Z 30005KT M07/M10 A3031 RMK A01 T10681097  RH  080%=      5-min Rain = 0
KGO1 090728Z 30005KT M07/M10 A3031 RMK A01 T10671096  RH  080%=      5-min Rain = 0
KGO1 090729Z 30005KT M07/M10 A3031 RMK A01 T10671097  RH  079%=      5-min Rain = 0
KGO1 090730Z 30005KT M07/M10 A303 RMK A01 T10671096  RH  079%=      5-min Rain = 0
KGO1 090731Z 30005KT M07/M10 A3031 RMK A01 T10671096  RH  080%=      5-min Rain = 0
KGO1 090732Z 30005KT M07/M10 A3031 RMK A01 T10651095  RH  080%=      5-min Rain = 0
KGO1 090733Z 29005KT M06/M09 A3031 RMK A01 T10641094  RH  079%=      5-min Rain = 0
KGO1 090734Z 29005KT M06/M10 A3031 RMK A01 T10641095  RH  078%=      5-min Rain = 0
KGO1 090735Z 29007KT M06/M10 A3031 RMK A01 T10641096  RH  078%=      5-min Rain = 0
KGO1 090736Z 29007KT M07/M10 A3031 RMK A01 T10661098  RH  078%=      5-min Rain = 0
KGO1 090737Z 29006KT M07/M10 A3031 RMK A01 T10671098  RH  079%=      5-min Rain = 0
KGO1 090738Z 29005KT M07/M10 A3031 RMK A01 T10681098  RH  079%=      5-min Rain = 0
KGO1 090739Z 29004KT M07/M10 A3031 RMK A01 T10691098  RH  080%=      5-min Rain = 0
KGO1 090740Z 28004KT M07/M10 A3031 RMK A01 T10701097  RH  081%=      5-min Rain = 0
KGO1 090741Z 28004KT M07/M10 A3031 RMK A01 T10701097  RH  081%=      5-min Rain = 0
KGO1 090742Z 28004KT M07/M10 A3031 RMK A01 T10711096  RH  082%=      5-min Rain = 0
KGO1 090743Z 27004KT M07/M10 A3031 RMK A01 T10701096  RH  082%=      5-min Rain = 0
KGO1 090744Z 27005KT M07/M10 A3031 RMK A01 T10691096  RH  081%=      5-min Rain = 0
KGO1 090745Z 27006KT M07/M10 A3031 RMK A01 T10701096  RH  081%=      5-min Rain = 0
KGO1 090746Z 27006KT M07/M10 A3031 RMK A01 T10701097  RH  081%=      5-min Rain = 0
KGO1 090747Z 27006KT M07/M10 A3031 RMK A01 T10701097  RH  081%=      5-min Rain = 0
KGO1 090748Z 27006KT M07/M10 A3031 RMK A01 T10701097  RH  081%=      5-min Rain = 0
KGO1 090749Z 27005KT M07/M10 A3031 RMK A01 T10701097  RH  081%=      5-min Rain = 0
KGO1 090750Z 27004KT M07/M10 A303 RMK A01 T10711098  RH  082%=      5-min Rain = 0
KGO1 090751Z 27004KT M07/M10 A303 RMK A01 T10721097  RH  082%=      5-min Rain = 0
KGO1 090752Z 28004KT M07/M10 A303 RMK A01 T10721097  RH  082%=      5-min Rain = 0
KGO1 090753Z 28004KT M07/M10 A303 RMK A01 T10731098  RH  083%=      5-min Rain = 0
KGO1 090754Z 28004KT M07/M10 A303 RMK A01 T10731097  RH  083%=      5-min Rain = 0
KGO1 090755Z 28005KT M07/M10 A303 RMK A01 T10731097  RH  083%=      5-min Rain = 0
KGO1 090756Z 28005KT M07/M10 A303 RMK A01 T10741098  RH  083%=      5-min Rain = 0
KGO1 090757Z 28006KT M07/M10 A303 RMK A01 T10741098  RH  083%=      5-min Rain = 0
KGO1 090758Z 28006KT M07/M10 A303 RMK A01 T10741098  RH  083%=      5-min Rain = 0
KGO1 090759Z 28006KT M07/M10 A303 RMK A01 T10741098  RH  083%=      5-min Rain = 0
KGO1 090800Z 28005KT M07/M10 A303 RMK A01 T10741098  RH  083%=      5-min Rain = 0
KGO1 090801Z 28005KT M08/M10 A303 RMK A01 T10751098  RH  083%=      5-min Rain = 0
KGO1 090802Z 28005KT M08/M10 A303 RMK A01 T10751098  RH  084%=      5-min Rain = 0
KGO1 090803Z 28005KT M08/M10 A303 RMK A01 T10751098  RH  084%=      5-min Rain = 0
KGO1 090804Z 28005KT M08/M10 A303 RMK A01 T10751098  RH  084%=      5-min Rain = 0
KGO1 090805Z 28005KT M08/M10 A303 RMK A01 T10751098  RH  084%=      5-min Rain = 0
KGO1 090806Z 28005KT M08/M10 A303 RMK A01 T10751098  RH  084%=      5-min Rain = 0
KGO1 090807Z 28005KT M08/M10 A303 RMK A01 T10751098  RH  083%=      5-min Rain = 0
KGO1 090808Z 27005KT M08/M10 A303 RMK A01 T10751099  RH  083%=      5-min Rain = 0
KGO1 090809Z 27005KT M08/M10 A303 RMK A01 T10751099  RH  083%=      5-min Rain = 0
KGO1 090810Z 28006KT M07/M10 A303 RMK A01 T10741099  RH  083%=      5-min Rain = 0
KGO1 090811Z 28006KT M07/M10 A303 RMK A01 T10741098  RH  083%=      5-min Rain = 0
KGO1 090812Z 28005KT M07/M10 A303 RMK A01 T10731098  RH  083%=      5-min Rain = 0
KGO1 090813Z 28005KT M07/M10 A303 RMK A01 T10731098  RH  082%=      5-min Rain = 0
KGO1 090814Z 28005KT M07/M10 A3031 RMK A01 T10741099  RH  083%=      5-min Rain = 0
KGO1 090815Z 28005KT M07/M10 A3031 RMK A01 T10741099  RH  083%=      5-min Rain = 0
KGO1 090816Z 28005KT M08/M10 A3031 RMK A01 T10751099  RH  083%=      5-min Rain = 0
KGO1 090817Z 28005KT M08/M10 A3031 RMK A01 T10761099  RH  083%=      5-min Rain = 0
KGO1 090818Z 28006KT M08/M10 A3031 RMK A01 T10751099  RH  083%=      5-min Rain = 0
KGO1 090819Z 28006KT M08/M10 A3031 RMK A01 T10761099  RH  083%=      5-min Rain = 0
KGO1 090820Z 28006KT M08/M10 A3031 RMK A01 T10751099  RH  083%=      5-min Rain = 0
KGO1 090821Z 28006KT M07/M10 A3031 RMK A01 T10741098  RH  083%=      5-min Rain = 0
KGO1 090822Z 29006KT M07/M10 A3031 RMK A01 T10741098  RH  083%=      5-min Rain = 0
KGO1 090823Z 29006KT M07/M10 A3031 RMK A01 T10741098  RH  083%=      5-min Rain = 0
KGO1 090824Z 29006KT M07/M10 A3031 RMK A01 T10741099  RH  082%=      5-min Rain = 0
KGO1 090825Z 29006KT M07/M10 A3031 RMK A01 T10731099  RH  082%=      5-min Rain = 0
KGO1 090826Z 29006KT M07/M10 A3031 RMK A01 T10731099  RH  082%=      5-min Rain = 0
KGO1 090827Z 29007KT M07/M10 A3031 RMK A01 T10741100  RH  082%=      5-min Rain = 0
KGO1 090828Z 29007KT M07/M10 A3031 RMK A01 T10741099  RH  082%=      5-min Rain = 0
KGO1 090829Z 29007KT M07/M10 A3031 RMK A01 T10741099  RH  082%=      5-min Rain = 0
KGO1 090830Z 29006KT M07/M10 A3031 RMK A01 T10741099  RH  082%=      5-min Rain = 0
KGO1 090831Z 28006KT M07/M10 A3031 RMK A01 T10741099  RH  082%=      5-min Rain = 0
KGO1 090832Z 28006KT M07/M10 A3031 RMK A01 T10741100  RH  082%=      5-min Rain = 0
KGO1 090833Z 28006KT M07/M10 A3031 RMK A01 T10741099  RH  082%=      5-min Rain = 0
KGO1 090834Z 28007KT M07/M10 A3031 RMK A01 T10741100  RH  082%=      5-min Rain = 0
KGO1 090835Z 28007KT M07/M10 A3031 RMK A01 T10741099  RH  082%=      5-min Rain = 0
KGO1 090836Z 28007KT M07/M10 A3031 RMK A01 T10741099  RH  082%=      5-min Rain = 0
KGO1 090837Z 28006KT M07/M10 A3031 RMK A01 T10741099  RH  082%=      5-min Rain = 0
KGO1 090838Z 28006KT M07/M10 A3031 RMK A01 T10741099  RH  082%=      5-min Rain = 0
KGO1 090839Z 27005KT M07/M10 A3031 RMK A01 T10741099  RH  082%=      5-min Rain = 0
KGO1 090840Z 27005KT M07/M10 A3031 RMK A01 T10741099  RH  082%=      5-min Rain = 0
KGO1 090841Z 27005KT M07/M10 A3031 RMK A01 T10741099  RH  083%=      5-min Rain = 0
KGO1 090842Z 27005KT M08/M10 A3031 RMK A01 T10751099  RH  083%=      5-min Rain = 0
KGO1 090843Z 27005KT M08/M10 A3031 RMK A01 T10761098  RH  084%=      5-min Rain = 0
KGO1 090844Z 27005KT M08/M10 A3031 RMK A01 T10761097  RH  084%=      5-min Rain = 0
KGO1 090845Z 27005KT M08/M10 A3031 RMK A01 T10761097  RH  085%=      5-min Rain = 0
KGO1 090846Z 28006KT M08/M10 A3031 RMK A01 T10761098  RH  085%=      5-min Rain = 0
KGO1 090847Z 28006KT M08/M10 A3031 RMK A01 T10761097  RH  085%=      5-min Rain = 0
KGO1 090848Z 29006KT M08/M10 A3031 RMK A01 T10761098  RH  084%=      5-min Rain = 0
KGO1 090849Z 29006KT M08/M10 A3031 RMK A01 T10761098  RH  084%=      5-min Rain = 0
KGO1 090850Z 29006KT M08/M10 A3031 RMK A01 T10761099  RH  084%=      5-min Rain = 0
KGO1 090851Z 29007KT M08/M10 A3031 RMK A01 T10761099  RH  083%=      5-min Rain = 0
KGO1 090852Z 28007KT M08/M10 A3031 RMK A01 T10761101  RH  083%=      5-min Rain = 0
KGO1 090853Z 28006KT M08/M10 A3031 RMK A01 T10751101  RH  082%=      5-min Rain = 0
KGO1 090854Z 28005KT M08/M10 A3031 RMK A01 T10751101  RH  081%=      5-min Rain = 0
KGO1 090855Z 28004KT M08/M10 A3031 RMK A01 T10751101  RH  081%=      5-min Rain = 0
KGO1 090856Z 28004KT M08/M10 A3031 RMK A01 T10751101  RH  082%=      5-min Rain = 0
KGO1 090857Z 28004KT M07/M10 A3031 RMK A01 T10741099  RH  082%=      5-min Rain = 0
KGO1 090858Z 27004KT M08/M10 A3031 RMK A01 T10751099  RH  083%=      5-min Rain = 0
KGO1 090859Z 27004KT M07/M10 A3031 RMK A01 T10741098  RH  083%=      5-min Rain = 0
KGO1 090900Z 27005KT M08/M10 A3031 RMK A01 T10751099  RH  083%=      5-min Rain = 0
KGO1 090901Z 27005KT M08/M10 A3031 RMK A01 T10751099  RH  083%=      5-min Rain = 0
KGO1 090902Z 28005KT M07/M10 A3031 RMK A01 T10741099  RH  082%=      5-min Rain = 0
KGO1 090903Z 28006KT M07/M10 A3031 RMK A01 T10731100  RH  081%=      5-min Rain = 0
KGO1 090904Z 28006KT M07/M10 A3031 RMK A01 T10731101  RH  081%=      5-min Rain = 0
KGO1 090905Z 28007KT M07/M10 A3031 RMK A01 T10721101  RH  080%=      5-min Rain = 0
KGO1 090906Z 28007KT M07/M10 A3031 RMK A01 T10721101  RH  080%=      5-min Rain = 0
KGO1 090907Z 28006KT M07/M10 A3031 RMK A01 T10721100  RH  080%=      5-min Rain = 0
KGO1 090908Z 29006KT M07/M10 A3031 RMK A01 T10711100  RH  080%=      5-min Rain = 0
KGO1 090909Z 29006KT M07/M10 A3031 RMK A01 T10711100  RH  080%=      5-min Rain = 0
KGO1 090910Z 29006KT M07/M10 A3031 RMK A01 T10711100  RH  080%=      5-min Rain = 0
KGO1 090911Z 29006KT M07/M10 A3031 RMK A01 T10721100  RH  080%=      5-min Rain = 0
KGO1 090912Z 29006KT M07/M10 A3031 RMK A01 T10721101  RH  080%=      5-min Rain = 0
KGO1 090913Z 29007KT M07/M10 A3031 RMK A01 T10731101  RH  080%=      5-min Rain = 0
KGO1 090914Z 29007KT M07/M10 A3031 RMK A01 T10731102  RH  080%=      5-min Rain = 0
KGO1 090915Z 29007KT M07/M10 A3031 RMK A01 T10731102  RH  080%=      5-min Rain = 0
KGO1 090916Z 29007KT M07/M10 A3031 RMK A01 T10731102  RH  080%=      5-min Rain = 0
KGO1 090917Z 29007KT M07/M10 A3031 RMK A01 T10731101  RH  080%=      5-min Rain = 0
KGO1 090918Z 29007KT M07/M10 A3031 RMK A01 T10731101  RH  080%=      5-min Rain = 0
KGO1 090919Z 29007KT M07/M10 A3031 RMK A01 T10731101  RH  080%=      5-min Rain = 0
KGO1 090920Z 29008KT M07/M10 A3031 RMK A01 T10731101  RH  080%=      5-min Rain = 0
KGO1 090921Z 29008KT M07/M10 A3031 RMK A01 T10731101  RH  080%=      5-min Rain = 0
KGO1 090922Z 29008KT M07/M10 A3031 RMK A01 T10731101  RH  080%=      5-min Rain = 0
KGO1 090923Z 29008KT M07/M10 A3031 RMK A01 T10721100  RH  080%=      5-min Rain = 0
KGO1 090924Z 30008KT M07/M10 A3031 RMK A01 T10711099  RH  080%=      5-min Rain = 0
KGO1 090925Z 29008KT M07/M10 A3031 RMK A01 T10711099  RH  080%=      5-min Rain = 0
KGO1 090926Z 29009KT M07/M10 A3032 RMK A01 T10701099  RH  080%=      5-min Rain = 0
KGO1 090927Z 29008KT M07/M10 A3032 RMK A01 T10701098  RH  080%=      5-min Rain = 0
KGO1 090928Z 29008KT M07/M10 A3032 RMK A01 T10701099  RH  080%=      5-min Rain = 0
KGO1 090929Z 29008KT M07/M10 A3032 RMK A01 T10711099  RH  080%=      5-min Rain = 0
KGO1 090930Z 29009KT M07/M10 A3032 RMK A01 T10711099  RH  081%=      5-min Rain = 0
KGO1 090931Z 29010KT M07/M10 A3032 RMK A01 T10711099  RH  081%=      5-min Rain = 0
KGO1 090932Z 29010KT M07/M10 A3032 RMK A01 T10711098  RH  081%=      5-min Rain = 0
KGO1 090933Z 30009KT M07/M10 A3032 RMK A01 T10711098  RH  081%=      5-min Rain = 0
KGO1 090934Z 30009KT M07/M10 A3032 RMK A01 T10711098  RH  081%=      5-min Rain = 0
KGO1 090935Z 30008KT M07/M10 A3032 RMK A01 T10701097  RH  081%=      5-min Rain = 0
KGO1 090936Z 30008KT M07/M10 A3032 RMK A01 T10691097  RH  080%=      5-min Rain = 0
KGO1 090937Z 30008KT M07/M10 A3032 RMK A01 T10691098  RH  080%=      5-min Rain = 0
KGO1 090938Z 30007KT M07/M10 A3032 RMK A01 T10691098  RH  080%=      5-min Rain = 0
KGO1 090939Z 30007KT M07/M10 A3032 RMK A01 T10691098  RH  080%=      5-min Rain = 0
KGO1 090940Z 30007KT M07/M10 A3032 RMK A01 T10701099  RH  080%=      5-min Rain = 0
KGO1 090941Z 30007KT M07/M10 A3032 RMK A01 T10701099  RH  080%=      5-min Rain = 0
KGO1 090942Z 30007KT M07/M10 A3032 RMK A01 T10711099  RH  080%=      5-min Rain = 0
KGO1 090943Z 30007KT M07/M10 A3032 RMK A01 T10701099  RH  080%=      5-min Rain = 0
KGO1 090944Z 30008KT M07/M10 A3032 RMK A01 T10711100  RH  080%=      5-min Rain = 0
KGO1 090945Z 30008KT M07/M10 A3032 RMK A01 T10701100  RH  080%=      5-min Rain = 0
KGO1 090946Z 30008KT M07/M10 A3032 RMK A01 T10701100  RH  079%=      5-min Rain = 0
KGO1 090947Z 30007KT M07/M10 A3032 RMK A01 T10691099  RH  079%=      5-min Rain = 0
KGO1 090948Z 30007KT M07/M10 A3032 RMK A01 T10701100  RH  079%=      5-min Rain = 0
KGO1 090949Z 30007KT M07/M10 A3032 RMK A01 T10701100  RH  079%=      5-min Rain = 0
KGO1 090950Z 29008KT M07/M10 A3032 RMK A01 T10701100  RH  079%=      5-min Rain = 0
KGO1 090951Z 29008KT M07/M10 A3032 RMK A01 T10701101  RH  079%=      5-min Rain = 0
KGO1 090952Z 29007KT M07/M10 A3031 RMK A01 T10711101  RH  079%=      5-min Rain = 0
KGO1 090953Z 30007KT M07/M10 A3031 RMK A01 T10711101  RH  079%=      5-min Rain = 0
KGO1 090954Z 30007KT M07/M10 A3031 RMK A01 T10711100  RH  080%=      5-min Rain = 0
KGO1 090955Z 30007KT M07/M10 A3031 RMK A01 T10721101  RH  080%=      5-min Rain = 0
KGO1 090956Z 30007KT M07/M10 A3031 RMK A01 T10721101  RH  080%=      5-min Rain = 0
KGO1 090957Z 30007KT M07/M10 A3031 RMK A01 T10711101  RH  079%=      5-min Rain = 0
KGO1 090958Z 29007KT M07/M10 A3031 RMK A01 T10701101  RH  079%=      5-min Rain = 0
KGO1 090959Z 29007KT M07/M10 A3031 RMK A01 T10701101  RH  079%=      5-min Rain = 0
KGO1 091000Z 30008KT M07/M10 A3031 RMK A01 T10701101  RH  079%=      5-min Rain = 0
KGO1 091001Z 30008KT M07/M10 A3031 RMK A01 T10711101  RH  079%=      5-min Rain = 0
KGO1 091002Z 30008KT M07/M10 A3031 RMK A01 T10711100  RH  079%=      5-min Rain = 0
KGO1 091003Z 30008KT M07/M10 A3031 RMK A01 T10711100  RH  080%=      5-min Rain = 0
KGO1 091004Z 30008KT M07/M10 A3031 RMK A01 T10701100  RH  080%=      5-min Rain = 0
KGO1 091005Z 30008KT M07/M10 A3031 RMK A01 T10701099  RH  080%=      5-min Rain = 0
KGO1 091006Z 30008KT M07/M10 A3031 RMK A01 T10701100  RH  080%=      5-min Rain = 0
KGO1 091007Z 30008KT M07/M10 A3031 RMK A01 T10701100  RH  079%=      5-min Rain = 0
KGO1 091008Z 30009KT M07/M10 A3031 RMK A01 T10691100  RH  079%=      5-min Rain = 0
KGO1 091009Z 30009KT M07/M10 A3031 RMK A01 T10681099  RH  079%=      5-min Rain = 0
KGO1 091010Z 30009KT M07/M10 A3031 RMK A01 T10671099  RH  078%=      5-min Rain = 0
KGO1 091011Z 30008KT M07/M10 A3031 RMK A01 T10671098  RH  078%=      5-min Rain = 0
KGO1 091012Z 30008KT M07/M10 A3031 RMK A01 T10671099  RH  078%=      5-min Rain = 0
KGO1 091013Z 30008KT M07/M10 A3031 RMK A01 T10661098  RH  078%=      5-min Rain = 0
KGO1 091014Z 30008KT M07/M10 A3031 RMK A01 T10661098  RH  078%=      5-min Rain = 0
KGO1 091015Z 30008KT M07/M10 A3031 RMK A01 T10671098  RH  078%=      5-min Rain = 0
KGO1 091016Z 30008KT M07/M10 A3031 RMK A01 T10671098  RH  079%=      5-min Rain = 0
KGO1 091017Z 30008KT M07/M10 A3031 RMK A01 T10671097  RH  079%=      5-min Rain = 0
KGO1 091018Z 30008KT M07/M10 A3031 RMK A01 T10671097  RH  079%=      5-min Rain = 0
KGO1 091019Z 30009KT M07/M10 A3031 RMK A01 T10671097  RH  079%=      5-min Rain = 0
KGO1 091020Z 30009KT M07/M10 A3031 RMK A01 T10661096  RH  079%=      5-min Rain = 0
KGO1 091021Z 30009KT M07/M10 A3031 RMK A01 T10661096  RH  079%=      5-min Rain = 0
KGO1 091022Z 30009KT M07/M10 A3031 RMK A01 T10651095  RH  079%=      5-min Rain = 0
KGO1 091023Z 30009KT M07/M10 A3031 RMK A01 T10651095  RH  079%=      5-min Rain = 0
KGO1 091024Z 30009KT M06/M10 A3031 RMK A01 T10641095  RH  079%=      5-min Rain = 0
KGO1 091025Z 30008KT M06/M10 A3031 RMK A01 T10641095  RH  078%=      5-min Rain = 0
KGO1 091026Z 30008KT M06/M10 A3031 RMK A01 T10641095  RH  078%=      5-min Rain = 0
KGO1 091027Z 30008KT M06/M10 A3031 RMK A01 T10641095  RH  078%=      5-min Rain = 0
KGO1 091028Z 30008KT M06/M10 A3031 RMK A01 T10641095  RH  078%=      5-min Rain = 0
KGO1 091029Z 30008KT M06/M10 A3031 RMK A01 T10641095  RH  078%=      5-min Rain = 0
KGO1 091030Z 30008KT M06/M10 A3031 RMK A01 T10641095  RH  078%=      5-min Rain = 0
KGO1 091031Z 30008KT M06/M10 A3031 RMK A01 T10641096  RH  078%=      5-min Rain = 0
KGO1 091032Z 30008KT M06/M10 A3031 RMK A01 T10631096  RH  078%=      5-min Rain = 0
KGO1 091033Z 30008KT M06/M10 A3031 RMK A01 T10631096  RH  078%=      5-min Rain = 0
KGO1 091034Z 30008KT M06/M10 A3031 RMK A01 T10631096  RH  078%=      5-min Rain = 0
KGO1 091035Z 30008KT M06/M10 A3031 RMK A01 T10631096  RH  078%=      5-min Rain = 0
KGO1 091036Z 30008KT M06/M10 A3031 RMK A01 T10631096  RH  078%=      5-min Rain = 0
KGO1 091037Z 30008KT M06/M10 A3031 RMK A01 T10621095  RH  078%=      5-min Rain = 0
KGO1 091038Z 30008KT M06/M10 A3031 RMK A01 T10621095  RH  078%=      5-min Rain = 0
KGO1 091039Z 30008KT M06/M10 A3031 RMK A01 T10621095  RH  077%=      5-min Rain = 0
KGO1 091040Z 30008KT M06/M10 A3031 RMK A01 T10621095  RH  077%=      5-min Rain = 0
KGO1 091041Z 30008KT M06/M10 A3031 RMK A01 T10621095  RH  077%=      5-min Rain = 0
KGO1 091042Z 30008KT M06/M10 A3031 RMK A01 T10621095  RH  077%=      5-min Rain = 0
KGO1 091043Z 30008KT M06/M09 A3031 RMK A01 T10611094  RH  078%=      5-min Rain = 0
KGO1 091044Z 30008KT M06/M09 A3031 RMK A01 T10611094  RH  078%=      5-min Rain = 0
KGO1 091045Z 30008KT M06/M09 A3031 RMK A01 T10611094  RH  078%=      5-min Rain = 0
KGO1 091046Z 30008KT M06/M09 A3031 RMK A01 T10621094  RH  078%=      5-min Rain = 0
KGO1 091047Z 30008KT M06/M09 A3031 RMK A01 T10611094  RH  078%=      5-min Rain = 0
KGO1 091048Z 30008KT M06/M09 A3031 RMK A01 T10601093  RH  078%=      5-min Rain = 0
KGO1 091049Z 30008KT M06/M09 A3031 RMK A01 T10611093  RH  078%=      5-min Rain = 0
KGO1 091050Z 30008KT M06/M09 A3031 RMK A01 T10601093  RH  078%=      5-min Rain = 0
KGO1 091051Z 30008KT M06/M09 A3031 RMK A01 T10601093  RH  078%=      5-min Rain = 0
KGO1 091052Z 29008KT M06/M09 A3031 RMK A01 T10611093  RH  078%=      5-min Rain = 0
KGO1 091053Z 29008KT M06/M09 A3031 RMK A01 T10601093  RH  078%=      5-min Rain = 0
KGO1 091054Z 29008KT M06/M09 A3031 RMK A01 T10601093  RH  078%=      5-min Rain = 0
KGO1 091055Z 29008KT M06/M09 A3031 RMK A01 T10611093  RH  078%=      5-min Rain = 0
KGO1 091056Z 29008KT M06/M09 A3031 RMK A01 T10611093  RH  078%=      5-min Rain = 0
KGO1 091057Z 29008KT M06/M09 A3031 RMK A01 T10611093  RH  078%=      5-min Rain = 0
KGO1 091058Z 30007KT M06/M09 A3031 RMK A01 T10611093  RH  078%=      5-min Rain = 0
KGO1 091059Z 30007KT M06/M09 A3031 RMK A01 T10611093  RH  078%=      5-min Rain = 0
KGO1 091100Z 30007KT M06/M09 A3031 RMK A01 T10601093  RH  078%=      5-min Rain = 0
KGO1 091101Z 30006KT M06/M09 A3031 RMK A01 T10611094  RH  077%=      5-min Rain = 0
KGO1 091102Z 30007KT M06/M09 A3031 RMK A01 T10611094  RH  077%=      5-min Rain = 0
KGO1 091103Z 30007KT M06/M09 A3031 RMK A01 T10601094  RH  077%=      5-min Rain = 0
KGO1 091104Z 30007KT M06/M09 A3031 RMK A01 T10601094  RH  077%=      5-min Rain = 0
KGO1 091105Z 30007KT M06/M09 A3031 RMK A01 T10601094  RH  077%=      5-min Rain = 0
KGO1 091106Z 30006KT M06/M09 A3031 RMK A01 T10611094  RH  077%=      5-min Rain = 0
KGO1 091107Z 29006KT M06/M09 A3031 RMK A01 T10601094  RH  077%=      5-min Rain = 0
KGO1 091108Z 29005KT M06/M09 A3031 RMK A01 T10601094  RH  077%=      5-min Rain = 0
KGO1 091109Z 30005KT M06/M09 A3031 RMK A01 T10601094  RH  077%=      5-min Rain = 0
KGO1 091110Z 30004KT M06/M09 A3031 RMK A01 T10611094  RH  077%=      5-min Rain = 0
KGO1 091111Z 30004KT M06/M09 A3031 RMK A01 T10611093  RH  078%=      5-min Rain = 0
KGO1 091112Z 30005KT M06/M09 A3031 RMK A01 T10611094  RH  078%=      5-min Rain = 0
KGO1 091113Z 30005KT M06/M09 A3031 RMK A01 T10611094  RH  078%=      5-min Rain = 0
KGO1 091114Z 30004KT M06/M09 A3031 RMK A01 T10611094  RH  078%=      5-min Rain = 0
KGO1 091115Z 30004KT M06/M09 A3031 RMK A01 T10611094  RH  078%=      5-min Rain = 0
KGO1 091116Z 30004KT M06/M09 A3031 RMK A01 T10611093  RH  078%=      5-min Rain = 0
KGO1 091117Z 30004KT M06/M09 A3031 RMK A01 T10601094  RH  077%=      5-min Rain = 0
KGO1 091118Z 30004KT M06/M09 A3031 RMK A01 T10601094  RH  077%=      5-min Rain = 0
KGO1 091119Z 30004KT M06/M09 A3031 RMK A01 T10591094  RH  077%=      5-min Rain = 0
KGO1 091120Z 30004KT M06/M09 A3031 RMK A01 T10591093  RH  077%=      5-min Rain = 0
KGO1 091121Z 30004KT M06/M09 A3031 RMK A01 T10591093  RH  077%=      5-min Rain = 0
KGO1 091122Z 31004KT M06/M09 A3031 RMK A01 T10591093  RH  077%=      5-min Rain = 0
KGO1 091123Z 31004KT M06/M09 A3031 RMK A01 T10591093  RH  077%=      5-min Rain = 0
KGO1 091124Z 31004KT M06/M09 A3031 RMK A01 T10581093  RH  076%=      5-min Rain = 0
KGO1 091125Z 30005KT M06/M09 A3031 RMK A01 T10591094  RH  076%=      5-min Rain = 0
KGO1 091126Z 31005KT M06/M09 A3031 RMK A01 T10591094  RH  076%=      5-min Rain = 0
KGO1 091127Z 30005KT M06/M10 A3031 RMK A01 T10591095  RH  076%=      5-min Rain = 0
KGO1 091128Z 30005KT M06/M10 A3031 RMK A01 T10591095  RH  076%=      5-min Rain = 0
KGO1 091129Z 30004KT M06/M10 A3031 RMK A01 T10591095  RH  076%=      5-min Rain = 0
KGO1 091130Z 30005KT M06/M10 A3031 RMK A01 T10601096  RH  076%=      5-min Rain = 0
KGO1 091131Z 30005KT M06/M10 A3031 RMK A01 T10601096  RH  076%=      5-min Rain = 0
KGO1 091132Z 30005KT M06/M10 A3031 RMK A01 T10601096  RH  076%=      5-min Rain = 0
KGO1 091133Z 30005KT M06/M10 A3031 RMK A01 T10611096  RH  076%=      5-min Rain = 0
KGO1 091134Z 30005KT M06/M10 A3031 RMK A01 T10621097  RH  076%=      5-min Rain = 0
KGO1 091135Z 30005KT M06/M10 A3031 RMK A01 T10621096  RH  077%=      5-min Rain = 0
KGO1 091136Z 30005KT M06/M10 A3031 RMK A01 T10621096  RH  077%=      5-min Rain = 0
KGO1 091137Z 30005KT M06/M10 A3031 RMK A01 T10631097  RH  077%=      5-min Rain = 0
KGO1 091138Z 30006KT M06/M10 A3031 RMK A01 T10631097  RH  077%=      5-min Rain = 0
KGO1 091139Z 30006KT M06/M10 A3031 RMK A01 T10631097  RH  077%=      5-min Rain = 0
KGO1 091140Z 30007KT M06/M10 A3031 RMK A01 T10641098  RH  077%=      5-min Rain = 0
KGO1 091141Z 30007KT M06/M10 A3031 RMK A01 T10641098  RH  077%=      5-min Rain = 0
KGO1 091142Z 30007KT M06/M10 A3031 RMK A01 T10641097  RH  077%=      5-min Rain = 0
KGO1 091143Z 30007KT M06/M10 A3031 RMK A01 T10641097  RH  078%=      5-min Rain = 0
KGO1 091144Z 30006KT M06/M10 A3031 RMK A01 T10641096  RH  078%=      5-min Rain = 0
KGO1 091145Z 30006KT M06/M10 A3031 RMK A01 T10631095  RH  078%=      5-min Rain = 0
KGO1 091146Z 30006KT M06/M09 A3031 RMK A01 T10631094  RH  078%=      5-min Rain = 0
KGO1 091147Z 30007KT M06/M09 A3031 RMK A01 T10631094  RH  078%=      5-min Rain = 0
KGO1 091148Z 30007KT M06/M09 A3031 RMK A01 T10631094  RH  079%=      5-min Rain = 0
KGO1 091149Z 30007KT M06/M09 A3031 RMK A01 T10621093  RH  079%=      5-min Rain = 0
KGO1 091150Z 30007KT M06/M09 A3031 RMK A01 T10631093  RH  079%=      5-min Rain = 0
KGO1 091151Z 30007KT M06/M09 A3031 RMK A01 T10621093  RH  079%=      5-min Rain = 0
KGO1 091152Z 30008KT M06/M09 A3031 RMK A01 T10611092  RH  079%=      5-min Rain = 0
KGO1 091153Z 30008KT M06/M09 A3031 RMK A01 T10601091  RH  078%=      5-min Rain = 0
KGO1 091154Z 30008KT M06/M09 A3031 RMK A01 T10601092  RH  078%=      5-min Rain = 0
KGO1 091155Z 30008KT M06/M09 A3031 RMK A01 T10591092  RH  078%=      5-min Rain = 0
KGO1 091156Z 30008KT M06/M09 A3031 RMK A01 T10581091  RH  077%=      5-min Rain = 0
KGO1 091157Z 30009KT M06/M09 A3031 RMK A01 T10571091  RH  077%=      5-min Rain = 0
KGO1 091158Z 30009KT M06/M09 A3031 RMK A01 T10571091  RH  077%=      5-min Rain = 0
KGO1 091159Z 30009KT M06/M09 A3031 RMK A01 T10571091  RH  077%=      5-min Rain = 0
KGO1 091200Z 29009KT M06/M09 A3031 RMK A01 T10571092  RH  076%=      5-min Rain = 0
KGO1 091201Z 30009KT M06/M09 A3031 RMK A01 T10571092  RH  076%=      5-min Rain = 0
KGO1 091202Z 30009KT M06/M09 A3031 RMK A01 T10571092  RH  076%=      5-min Rain = 0
KGO1 091203Z 30009KT M06/M09 A3031 RMK A01 T10571092  RH  076%=      5-min Rain = 0
KGO1 091204Z 30009KT M06/M09 A3031 RMK A01 T10571092  RH  076%=      5-min Rain = 0
KGO1 091205Z 30009KT M06/M09 A3031 RMK A01 T10571092  RH  076%=      5-min Rain = 0
KGO1 091206Z 30008KT M06/M09 A3031 RMK A01 T10571092  RH  076%=      5-min Rain = 0
KGO1 091207Z 30008KT M06/M09 A3031 RMK A01 T10581093  RH  076%=      5-min Rain = 0
KGO1 091208Z 30009KT M06/M09 A3031 RMK A01 T10581093  RH  077%=      5-min Rain = 0
KGO1 091209Z 30009KT M06/M09 A3031 RMK A01 T10591093  RH  076%=      5-min Rain = 0
KGO1 091210Z 29009KT M06/M09 A3031 RMK A01 T10591094  RH  076%=      5-min Rain = 0
KGO1 091211Z 29008KT M06/M09 A3031 RMK A01 T10591094  RH  076%=      5-min Rain = 0
KGO1 091212Z 29008KT M06/M09 A3031 RMK A01 T10591094  RH  076%=      5-min Rain = 0
KGO1 091213Z 29009KT M06/M10 A3031 RMK A01 T10601095  RH  076%=      5-min Rain = 0
KGO1 091214Z 29009KT M06/M10 A3031 RMK A01 T10611095  RH  077%=      5-min Rain = 0
KGO1 091215Z 29009KT M06/M10 A3031 RMK A01 T10611095  RH  077%=      5-min Rain = 0
KGO1 091216Z 29009KT M06/M10 A3032 RMK A01 T10621095  RH  077%=      5-min Rain = 0
KGO1 091217Z 29009KT M06/M10 A3032 RMK A01 T10621095  RH  077%=      5-min Rain = 0
KGO1 091218Z 29009KT M06/M10 A3032 RMK A01 T10621095  RH  077%=      5-min Rain = 0
KGO1 091219Z 30009KT M06/M10 A3032 RMK A01 T10621095  RH  077%=      5-min Rain = 0
KGO1 091220Z 30009KT M06/M10 A3032 RMK A01 T10621096  RH  077%=      5-min Rain = 0
KGO1 091221Z 30009KT M06/M10 A3032 RMK A01 T10621096  RH  077%=      5-min Rain = 0
KGO1 091222Z 30009KT M06/M10 A3032 RMK A01 T10601096  RH  076%=      5-min Rain = 0
KGO1 091223Z 30009KT M06/M10 A3032 RMK A01 T10591097  RH  075%=      5-min Rain = 0
KGO1 091224Z 30009KT M06/M10 A3032 RMK A01 T10581097  RH  074%=      5-min Rain = 0
KGO1 091225Z 30008KT M06/M10 A3032 RMK A01 T10571097  RH  073%=      5-min Rain = 0
KGO1 091226Z 30009KT M06/M10 A3032 RMK A01 T10561097  RH  073%=      5-min Rain = 0
KGO1 091227Z 30008KT M06/M10 A3032 RMK A01 T10561097  RH  073%=      5-min Rain = 0
KGO1 091228Z 30008KT M06/M10 A3032 RMK A01 T10561097  RH  073%=      5-min Rain = 0
KGO1 091229Z 30008KT M06/M10 A3032 RMK A01 T10571097  RH  073%=      5-min Rain = 0
KGO1 091230Z 30008KT M06/M10 A3032 RMK A01 T10561097  RH  073%=      5-min Rain = 0
KGO1 091231Z 30008KT M06/M10 A3032 RMK A01 T10571097  RH  073%=      5-min Rain = 0
KGO1 091232Z 30007KT M06/M10 A3032 RMK A01 T10571098  RH  073%=      5-min Rain = 0
KGO1 091233Z 30007KT M06/M10 A3032 RMK A01 T10571098  RH  073%=      5-min Rain = 0
KGO1 091234Z 30008KT M06/M10 A3032 RMK A01 T10571098  RH  073%=      5-min Rain = 0
KGO1 091235Z 30008KT M06/M10 A3032 RMK A01 T10571098  RH  073%=      5-min Rain = 0
KGO1 091236Z 30008KT M06/M10 A3032 RMK A01 T10561098  RH  072%=      5-min Rain = 0
KGO1 091237Z 30008KT M06/M10 A3032 RMK A01 T10561098  RH  072%=      5-min Rain = 0
KGO1 091238Z 30008KT M06/M10 A3032 RMK A01 T10561098  RH  072%=      5-min Rain = 0
KGO1 091239Z 30008KT M06/M10 A3032 RMK A01 T10561098  RH  072%=      5-min Rain = 0
KGO1 091240Z 30008KT M06/M10 A3032 RMK A01 T10561098  RH  072%=      5-min Rain = 0
KGO1 091241Z 30009KT M06/M10 A3032 RMK A01 T10561098  RH  072%=      5-min Rain = 0
KGO1 091242Z 30009KT M06/M10 A3032 RMK A01 T10561098  RH  072%=      5-min Rain = 0
KGO1 091243Z 30009KT M06/M10 A3032 RMK A01 T10561098  RH  073%=      5-min Rain = 0
KGO1 091244Z 29009KT M06/M10 A3032 RMK A01 T10561097  RH  073%=      5-min Rain = 0
KGO1 091245Z 30008KT M06/M10 A3032 RMK A01 T10561097  RH  073%=      5-min Rain = 0
KGO1 091246Z 29008KT M06/M10 A3032 RMK A01 T10551096  RH  073%=      5-min Rain = 0
KGO1 091247Z 30008KT M06/M10 A3032 RMK A01 T10551096  RH  073%=      5-min Rain = 0
KGO1 091248Z 30008KT M06/M10 A3033 RMK A01 T10551096  RH  073%=      5-min Rain = 0
KGO1 091249Z 30008KT M05/M10 A3033 RMK A01 T10541095  RH  073%=      5-min Rain = 0
KGO1 091250Z 30008KT M05/M10 A3033 RMK A01 T10541095  RH  073%=      5-min Rain = 0
KGO1 091251Z 30008KT M05/M09 A3033 RMK A01 T10541094  RH  073%=      5-min Rain = 0
KGO1 091252Z 30008KT M05/M09 A3033 RMK A01 T10541094  RH  073%=      5-min Rain = 0
KGO1 091253Z 30008KT M05/M09 A3033 RMK A01 T10531094  RH  073%=      5-min Rain = 0
KGO1 091254Z 30008KT M05/M09 A3033 RMK A01 T10521094  RH  073%=      5-min Rain = 0
KGO1 091255Z 30008KT M05/M09 A3033 RMK A01 T10521094  RH  073%=      5-min Rain = 0
KGO1 091256Z 30009KT M05/M09 A3033 RMK A01 T10521094  RH  073%=      5-min Rain = 0
KGO1 091257Z 29009KT M05/M09 A3033 RMK A01 T10521093  RH  073%=      5-min Rain = 0
KGO1 091258Z 30009KT M05/M09 A3033 RMK A01 T10521093  RH  073%=      5-min Rain = 0
KGO1 091259Z 30009KT M05/M09 A3033 RMK A01 T10521092  RH  073%=      5-min Rain = 0
KGO1 091300Z 30009KT M05/M09 A3033 RMK A01 T10521092  RH  074%=      5-min Rain = 0
KGO1 091301Z 30009KT M05/M09 A3033 RMK A01 T10521092  RH  074%=      5-min Rain = 0
KGO1 091302Z 30009KT M05/M09 A3033 RMK A01 T10521091  RH  074%=      5-min Rain = 0
KGO1 091303Z 30008KT M05/M09 A3033 RMK A01 T10521091  RH  074%=      5-min Rain = 0
KGO1 091304Z 30008KT M05/M09 A3033 RMK A01 T10521091  RH  074%=      5-min Rain = 0
KGO1 091305Z 30009KT M05/M09 A3033 RMK A01 T10511091  RH  074%=      5-min Rain = 0
KGO1 091306Z 30008KT M05/M09 A3033 RMK A01 T10511091  RH  074%=      5-min Rain = 0
KGO1 091307Z 30008KT M05/M09 A3033 RMK A01 T10511090  RH  074%=      5-min Rain = 0
KGO1 091308Z 30008KT M05/M09 A3033 RMK A01 T10511091  RH  074%=      5-min Rain = 0
KGO1 091309Z 30008KT M05/M09 A3033 RMK A01 T10511090  RH  074%=      5-min Rain = 0
KGO1 091310Z 30008KT M05/M09 A3033 RMK A01 T10521091  RH  074%=      5-min Rain = 0
KGO1 091311Z 30009KT M05/M09 A3033 RMK A01 T10521090  RH  075%=      5-min Rain = 0
KGO1 091312Z 30009KT M05/M09 A3033 RMK A01 T10521090  RH  075%=      5-min Rain = 0
KGO1 091313Z 30009KT M05/M09 A3033 RMK A01 T10531090  RH  075%=      5-min Rain = 0
KGO1 091314Z 30008KT M05/M09 A3033 RMK A01 T10531090  RH  075%=      5-min Rain = 0
KGO1 091315Z 30008KT M05/M09 A3033 RMK A01 T10531090  RH  075%=      5-min Rain = 0
KGO1 091316Z 30008KT M05/M09 A3034 RMK A01 T10531090  RH  075%=      5-min Rain = 0
KGO1 091317Z 30008KT M05/M09 A3034 RMK A01 T10531090  RH  075%=      5-min Rain = 0
KGO1 091318Z 30008KT M05/M09 A3034 RMK A01 T10521090  RH  075%=      5-min Rain = 0
KGO1 091319Z 30008KT M05/M09 A3034 RMK A01 T10511090  RH  074%=      5-min Rain = 0
KGO1 091320Z 30009KT M05/M09 A3034 RMK A01 T10521091  RH  074%=      5-min Rain = 0
KGO1 091321Z 30009KT M05/M09 A3034 RMK A01 T10521091  RH  074%=      5-min Rain = 0
KGO1 091322Z 30009KT M05/M09 A3034 RMK A01 T10511091  RH  074%=      5-min Rain = 0
KGO1 091323Z 30009KT M05/M09 A3034 RMK A01 T10511092  RH  073%=      5-min Rain = 0
KGO1 091324Z 30009KT M05/M09 A3034 RMK A01 T10511093  RH  072%=      5-min Rain = 0
KGO1 091325Z 30009KT M05/M09 A3034 RMK A01 T10501093  RH  072%=      5-min Rain = 0
KGO1 091326Z 30009KT M05/M09 A3034 RMK A01 T10491093  RH  071%=      5-min Rain = 0
KGO1 091327Z 30009KT M05/M09 A3034 RMK A01 T10491092  RH  071%=      5-min Rain = 0
KGO1 091328Z 30009KT M05/M09 A3034 RMK A01 T10491093  RH  072%=      5-min Rain = 0
KGO1 091329Z 30008KT M05/M09 A3034 RMK A01 T10491092  RH  072%=      5-min Rain = 0
KGO1 091330Z 30008KT M05/M09 A3034 RMK A01 T10501092  RH  072%=      5-min Rain = 0
KGO1 091331Z 30008KT M05/M09 A3034 RMK A01 T10501092  RH  072%=      5-min Rain = 0
KGO1 091332Z 30009KT M05/M09 A3034 RMK A01 T10501092  RH  073%=      5-min Rain = 0
KGO1 091333Z 30008KT M05/M09 A3034 RMK A01 T10511092  RH  073%=      5-min Rain = 0
KGO1 091334Z 30008KT M05/M09 A3034 RMK A01 T10511091  RH  074%=      5-min Rain = 0
KGO1 091335Z 30008KT M05/M09 A3034 RMK A01 T10521091  RH  074%=      5-min Rain = 0
KGO1 091336Z 30008KT M05/M09 A3034 RMK A01 T10531091  RH  075%=      5-min Rain = 0
KGO1 091337Z 30007KT M05/M09 A3034 RMK A01 T10531090  RH  075%=      5-min Rain = 0
KGO1 091338Z 30007KT M05/M09 A3034 RMK A01 T10531090  RH  075%=      5-min Rain = 0
KGO1 091339Z 30007KT M05/M09 A3034 RMK A01 T10541090  RH  076%=      5-min Rain = 0
KGO1 091340Z 30007KT M06/M09 A3034 RMK A01 T10551091  RH  076%=      5-min Rain = 0
KGO1 091341Z 30007KT M06/M09 A3034 RMK A01 T10551090  RH  076%=      5-min Rain = 0
KGO1 091342Z 30007KT M06/M09 A3034 RMK A01 T10561091  RH  076%=      5-min Rain = 0
KGO1 091343Z 30006KT M06/M09 A3034 RMK A01 T10561091  RH  076%=      5-min Rain = 0
KGO1 091344Z 29006KT M06/M09 A3034 RMK A01 T10561091  RH  076%=      5-min Rain = 0
KGO1 091345Z 29007KT M06/M09 A3034 RMK A01 T10561091  RH  076%=      5-min Rain = 0
KGO1 091346Z 29007KT M06/M09 A3035 RMK A01 T10571092  RH  076%=      5-min Rain = 0
KGO1 091347Z 29007KT M06/M09 A3035 RMK A01 T10571092  RH  076%=      5-min Rain = 0
KGO1 091348Z 29007KT M06/M09 A3035 RMK A01 T10571091  RH  077%=      5-min Rain = 0
KGO1 091349Z 29007KT M06/M09 A3035 RMK A01 T10571091  RH  077%=      5-min Rain = 0
KGO1 091350Z 29007KT M06/M09 A3035 RMK A01 T10571091  RH  077%=      5-min Rain = 0
KGO1 091351Z 29007KT M06/M09 A3035 RMK A01 T10581091  RH  077%=      5-min Rain = 0
KGO1 091352Z 29007KT M06/M09 A3035 RMK A01 T10581091  RH  077%=      5-min Rain = 0
KGO1 091353Z 29007KT M06/M09 A3035 RMK A01 T10571090  RH  077%=      5-min Rain = 0
KGO1 091354Z 29008KT M06/M09 A3035 RMK A01 T10571090  RH  077%=      5-min Rain = 0
KGO1 091355Z 29008KT M06/M09 A3035 RMK A01 T10561090  RH  077%=      5-min Rain = 0
KGO1 091356Z 29008KT M06/M09 A3035 RMK A01 T10561090  RH  077%=      5-min Rain = 0
KGO1 091357Z 29008KT M06/M09 A3035 RMK A01 T10561089  RH  077%=      5-min Rain = 0
KGO1 091358Z 29008KT M06/M09 A3035 RMK A01 T10551089  RH  077%=      5-min Rain = 0
KGO1 091359Z 29008KT M06/M09 A3035 RMK A01 T10551089  RH  077%=      5-min Rain = 0
KGO1 091400Z 29008KT M06/M09 A3035 RMK A01 T10551089  RH  077%=      5-min Rain = 0
KGO1 091401Z 29008KT M05/M09 A3035 RMK A01 T10541089  RH  076%=      5-min Rain = 0
KGO1 091402Z 29008KT M05/M09 A3035 RMK A01 T10541089  RH  076%=      5-min Rain = 0
KGO1 091403Z 29008KT M05/M09 A3035 RMK A01 T10541089  RH  076%=      5-min Rain = 0
KGO1 091404Z 29008KT M05/M09 A3035 RMK A01 T10541089  RH  077%=      5-min Rain = 0
KGO1 091405Z 29008KT M05/M09 A3035 RMK A01 T10541089  RH  077%=      5-min Rain = 0
KGO1 091406Z 29009KT M06/M09 A3035 RMK A01 T10551088  RH  077%=      5-min Rain = 0
KGO1 091407Z 29009KT M06/M09 A3035 RMK A01 T10551088  RH  078%=      5-min Rain = 0
KGO1 091408Z 29009KT M06/M09 A3035 RMK A01 T10551087  RH  078%=      5-min Rain = 0
KGO1 091409Z 29008KT M06/M09 A3035 RMK A01 T10551086  RH  079%=      5-min Rain = 0
KGO1 091410Z 29008KT M06/M09 A3035 RMK A01 T10551086  RH  079%=      5-min Rain = 0
KGO1 091411Z 29008KT M05/M09 A3035 RMK A01 T10541085  RH  079%=      5-min Rain = 0
KGO1 091412Z 29009KT M05/M08 A3035 RMK A01 T10541084  RH  079%=      5-min Rain = 0
KGO1 091413Z 29008KT M05/M08 A3035 RMK A01 T10531084  RH  079%=      5-min Rain = 0
KGO1 091414Z 29009KT M05/M08 A3035 RMK A01 T10521084  RH  079%=      5-min Rain = 0
KGO1 091415Z 29008KT M05/M08 A3035 RMK A01 T10511083  RH  078%=      5-min Rain = 0
KGO1 091416Z 29008KT M05/M08 A3035 RMK A01 T10501082  RH  078%=      5-min Rain = 0
KGO1 091417Z 29008KT M05/M08 A3035 RMK A01 T10481082  RH  078%=      5-min Rain = 0
KGO1 091418Z 29008KT M05/M08 A3035 RMK A01 T10471081  RH  077%=      5-min Rain = 0
KGO1 091419Z 29008KT M05/M08 A3035 RMK A01 T10461081  RH  077%=      5-min Rain = 0
KGO1 091420Z 29008KT M05/M08 A3035 RMK A01 T10461081  RH  076%=      5-min Rain = 0
KGO1 091421Z 29008KT M05/M08 A3035 RMK A01 T10451081  RH  076%=      5-min Rain = 0
KGO1 091422Z 29009KT M04/M08 A3035 RMK A01 T10441081  RH  076%=      5-min Rain = 0
KGO1 091423Z 30008KT M04/M08 A3035 RMK A01 T10441081  RH  075%=      5-min Rain = 0
KGO1 091424Z 29008KT M04/M08 A3035 RMK A01 T10431080  RH  076%=      5-min Rain = 0
KGO1 091425Z 29009KT M04/M08 A3035 RMK A01 T10431080  RH  076%=      5-min Rain = 0
KGO1 091426Z 29009KT M04/M08 A3035 RMK A01 T10431080  RH  076%=      5-min Rain = 0
KGO1 091427Z 30009KT M04/M08 A3036 RMK A01 T10431080  RH  075%=      5-min Rain = 0
KGO1 091428Z 29009KT M04/M08 A3036 RMK A01 T10421079  RH  075%=      5-min Rain = 0
KGO1 091429Z 29008KT M04/M08 A3036 RMK A01 T10411078  RH  075%=      5-min Rain = 0
KGO1 091430Z 30008KT M04/M08 A3036 RMK A01 T10391077  RH  075%=      5-min Rain = 0
KGO1 091431Z 30008KT M04/M08 A3036 RMK A01 T10381077  RH  075%=      5-min Rain = 0
KGO1 091432Z 30008KT M04/M08 A3035 RMK A01 T10371077  RH  074%=      5-min Rain = 0
KGO1 091433Z 30007KT M04/M08 A3036 RMK A01 T10361077  RH  073%=      5-min Rain = 0
KGO1 091434Z 30008KT M04/M08 A3036 RMK A01 T10351077  RH  073%=      5-min Rain = 0
KGO1 091435Z 30008KT M04/M08 A3036 RMK A01 T10351078  RH  072%=      5-min Rain = 0
KGO1 091436Z 30008KT M03/M08 A3036 RMK A01 T10341078  RH  072%=      5-min Rain = 0
KGO1 091437Z 30007KT M03/M08 A3036 RMK A01 T10341078  RH  072%=      5-min Rain = 0
KGO1 091438Z 30008KT M04/M08 A3036 RMK A01 T10351077  RH  072%=      5-min Rain = 0
KGO1 091439Z 30007KT M04/M08 A3036 RMK A01 T10351078  RH  072%=      5-min Rain = 0
KGO1 091440Z 30007KT M03/M08 A3036 RMK A01 T10341077  RH  072%=      5-min Rain = 0
KGO1 091441Z 30007KT M03/M08 A3036 RMK A01 T10331077  RH  072%=      5-min Rain = 0
KGO1 091442Z 30007KT M03/M08 A3036 RMK A01 T10321076  RH  072%=      5-min Rain = 0
KGO1 091443Z 30006KT M03/M08 A3036 RMK A01 T10311075  RH  071%=      5-min Rain = 0
KGO1 091444Z 29006KT M03/M07 A3036 RMK A01 T10291074  RH  071%=      5-min Rain = 0
KGO1 091445Z 30006KT M03/M07 A3036 RMK A01 T10271074  RH  070%=      5-min Rain = 0
KGO1 091446Z 30007KT M03/M07 A3036 RMK A01 T10261074  RH  070%=      5-min Rain = 0
KGO1 091447Z 30007KT M03/M08 A3036 RMK A01 T10251075  RH  068%=      5-min Rain = 0
KGO1 091448Z 30007KT M02/M07 A3036 RMK A01 T10231074  RH  068%=      5-min Rain = 0
KGO1 091449Z 30007KT M02/M08 A3036 RMK A01 T10231075  RH  067%=      5-min Rain = 0
KGO1 091450Z 30006KT M02/M08 A3036 RMK A01 T10221075  RH  067%=      5-min Rain = 0
KGO1 091451Z 31007KT M02/M08 A3036 RMK A01 T10221075  RH  067%=      5-min Rain = 0
KGO1 091452Z 31006KT M02/M08 A3036 RMK A01 T10221076  RH  066%=      5-min Rain = 0
KGO1 091453Z 31006KT M02/M08 A3036 RMK A01 T10211075  RH  066%=      5-min Rain = 0
KGO1 091454Z 31005KT M02/M07 A3036 RMK A01 T10201074  RH  066%=      5-min Rain = 0
KGO1 091455Z 31005KT M02/M07 A3036 RMK A01 T10191073  RH  067%=      5-min Rain = 0
KGO1 091456Z 31005KT M02/M07 A3036 RMK A01 T10191072  RH  067%=      5-min Rain = 0
KGO1 091457Z 31005KT M02/M07 A3036 RMK A01 T10181073  RH  066%=      5-min Rain = 0
KGO1 091458Z 31005KT M02/M07 A3037 RMK A01 T10171072  RH  066%=      5-min Rain = 0
KGO1 091459Z 31005KT M02/M07 A3037 RMK A01 T10161070  RH  066%=      5-min Rain = 0
KGO1 091500Z 30005KT M02/M07 A3037 RMK A01 T10151069  RH  066%=      5-min Rain = 0
KGO1 091501Z 31006KT M01/M07 A3037 RMK A01 T10141069  RH  066%=      5-min Rain = 0
KGO1 091502Z 31006KT M01/M07 A3037 RMK A01 T10131069  RH  066%=      5-min Rain = 0
KGO1 091503Z 31006KT M01/M07 A3037 RMK A01 T10131069  RH  066%=      5-min Rain = 0
KGO1 091504Z 31006KT M01/M07 A3037 RMK A01 T10121069  RH  065%=      5-min Rain = 0
KGO1 091505Z 31006KT M01/M07 A3037 RMK A01 T10111067  RH  066%=      5-min Rain = 0
KGO1 091506Z 31007KT M01/M07 A3037 RMK A01 T10101069  RH  065%=      5-min Rain = 0
KGO1 091507Z 31007KT M01/M07 A3037 RMK A01 T10101071  RH  063%=      5-min Rain = 0
KGO1 091508Z 31007KT M01/M07 A3037 RMK A01 T10101070  RH  064%=      5-min Rain = 0
KGO1 091509Z 31006KT M01/M07 A3037 RMK A01 T10091068  RH  064%=      5-min Rain = 0
KGO1 091510Z 31007KT M01/M07 A3037 RMK A01 T10081070  RH  063%=      5-min Rain = 0
KGO1 091511Z 31005KT M01/M07 A3037 RMK A01 T10061071  RH  062%=      5-min Rain = 0
KGO1 091512Z 31007KT M01/M07 A3037 RMK A01 T10051070  RH  062%=      5-min Rain = 0
KGO1 091513Z 31006KT M00/M07 A3037 RMK A01 T10041069  RH  061%=      5-min Rain = 0
KGO1 091514Z 32006KT M00/M07 A3037 RMK A01 T10021066  RH  062%=      5-min Rain = 0
KGO1 091515Z 31007KT M00/M07 A3037 RMK A01 T10011066  RH  061%=      5-min Rain = 0
KGO1 091516Z 32007KT 00/M07 A3037 RMK A01 T00011066  RH  061%=      5-min Rain = 0
KGO1 091517Z 31007KT 00/M07 A3037 RMK A01 T00021066  RH  060%=      5-min Rain = 0
KGO1 091518Z 32008KT 00/M07 A3037 RMK A01 T00041066  RH  060%=      5-min Rain = 0
KGO1 091519Z 31007KT 01/M07 A3037 RMK A01 T00051066  RH  059%=      5-min Rain = 0
KGO1 091520Z 32008KT 01/M07 A3037 RMK A01 T00061067  RH  058%=      5-min Rain = 0
KGO1 091521Z 31008KT 01/M07 A3037 RMK A01 T00071067  RH  058%=      5-min Rain = 0
KGO1 091522Z 31008KT 01/M07 A3037 RMK A01 T00081070  RH  056%=      5-min Rain = 0
KGO1 091523Z 32009KT 01/M07 A3037 RMK A01 T00081072  RH  055%=      5-min Rain = 0
KGO1 091524Z 32007KT 01/M07 A3037 RMK A01 T00091069  RH  056%=      5-min Rain = 0
KGO1 091525Z 32009KT 01/M07 A3037 RMK A01 T00111067  RH  056%=      5-min Rain = 0
KGO1 091526Z 31008KT 01/M07 A3037 RMK A01 T00121070  RH  054%=      5-min Rain = 0
KGO1 091527Z 32009KT 01/M07 A3038 RMK A01 T00121070  RH  054%=      5-min Rain = 0
KGO1 091528Z 32008KT 01/M07 A3038 RMK A01 T00131069  RH  054%=      5-min Rain = 0
KGO1 091529Z 33009KT 02/M07 A3038 RMK A01 T00151066  RH  055%=      5-min Rain = 0
KGO1 091530Z 33007KT 02/M07 A3038 RMK A01 T00161066  RH  054%=      5-min Rain = 0
KGO1 091531Z 33008KT 02/M07 A3038 RMK A01 T00171066  RH  054%=      5-min Rain = 0
KGO1 091532Z 32009KT 02/M07 A3038 RMK A01 T00181066  RH  053%=      5-min Rain = 0
KGO1 091533Z 32009KT 02/M07 A3038 RMK A01 T00191068  RH  053%=      5-min Rain = 0
KGO1 091534Z 32010KT 02/M07 A3038 RMK A01 T00191066  RH  053%=      5-min Rain = 0
KGO1 091535Z 33009KT 02/M07 A3038 RMK A01 T00191067  RH  053%=      5-min Rain = 0
KGO1 091536Z 33009KT 02/M07 A3038 RMK A01 T00191069  RH  052%=      5-min Rain = 0
KGO1 091537Z 32008KT 02/M07 A3038 RMK A01 T00191067  RH  053%=      5-min Rain = 0
KGO1 091538Z 32011KT 02/M07 A3038 RMK A01 T00201068  RH  052%=      5-min Rain = 0
KGO1 091539Z 32009KT 02/M07 A3038 RMK A01 T00211067  RH  052%=      5-min Rain = 0
KGO1 091540Z 33008KT 02/M07 A3038 RMK A01 T00211066  RH  052%=      5-min Rain = 0
KGO1 091541Z 32007KT 02/M07 A3038 RMK A01 T00221065  RH  053%=      5-min Rain = 0
KGO1 091542Z 32009KT 02/M07 A3038 RMK A01 T00231065  RH  052%=      5-min Rain = 0
KGO1 091543Z 32008KT 02/M07 A3038 RMK A01 T00231066  RH  052%=      5-min Rain = 0
KGO1 091544Z 32009KT 02/M07 A3038 RMK A01 T00231066  RH  052%=      5-min Rain = 0
KGO1 091545Z 32008KT 02/M07 A3038 RMK A01 T00241065  RH  052%=      5-min Rain = 0
KGO1 091546Z 33008KT 02/M06 A3038 RMK A01 T00241064  RH  052%=      5-min Rain = 0
KGO1 091547Z 33008KT 03/M06 A3038 RMK A01 T00251063  RH  052%=      5-min Rain = 0
KGO1 091548Z 34009KT 03/M06 A3038 RMK A01 T00261064  RH  052%=      5-min Rain = 0
KGO1 091549Z 33009KT 03/M06 A3038 RMK A01 T00271063  RH  051%=      5-min Rain = 0
KGO1 091550Z 33008KT 03/M06 A3038 RMK A01 T00271061  RH  052%=      5-min Rain = 0
KGO1 091551Z 33009KT 03/M06 A3038 RMK A01 T00291060  RH  052%=      5-min Rain = 0
KGO1 091552Z 32009KT 03/M06 A3038 RMK A01 T00291061  RH  051%=      5-min Rain = 0
KGO1 091553Z 32009KT 03/M06 A3038 RMK A01 T00301060  RH  052%=      5-min Rain = 0
KGO1 091554Z 33009KT 03/M06 A3038 RMK A01 T00301061  RH  051%=      5-min Rain = 0
KGO1 091555Z 33009KT 03/M06 A3038 RMK A01 T00301061  RH  051%=      5-min Rain = 0
KGO1 091556Z 32008KT 03/M06 A3038 RMK A01 T00301060  RH  051%=      5-min Rain = 0
KGO1 091557Z 32008KT 03/M06 A3038 RMK A01 T00321058  RH  052%=      5-min Rain = 0
KGO1 091558Z 33010KT 03/M06 A3038 RMK A01 T00321059  RH  051%=      5-min Rain = 0
KGO1 091559Z 33009KT 03/M06 A3038 RMK A01 T00321058  RH  051%=      5-min Rain = 0
KGO1 091600Z 33009KT 03/M06 A3038 RMK A01 T00331058  RH  051%=      5-min Rain = 0
KGO1 091601Z 33008KT 03/M06 A3038 RMK A01 T00341057  RH  051%=      5-min Rain = 0
KGO1 091602Z 33008KT 04/M06 A3038 RMK A01 T00351055  RH  052%=      5-min Rain = 0
KGO1 091603Z 34007KT 04/M05 A3038 RMK A01 T00371054  RH  051%=      5-min Rain = 0
KGO1 091604Z 34006KT 04/M05 A3038 RMK A01 T00381053  RH  051%=      5-min Rain = 0
KGO1 091605Z 33008KT 04/M05 A3038 RMK A01 T00401054  RH  050%=      5-min Rain = 0
KGO1 091606Z 32009KT 04/M06 A3038 RMK A01 T00391056  RH  050%=      5-min Rain = 0
KGO1 091607Z 32009KT 04/M06 A3038 RMK A01 T00381056  RH  050%=      5-min Rain = 0
KGO1 091608Z 33007KT 04/M05 A3038 RMK A01 T00381054  RH  051%=      5-min Rain = 0
KGO1 091609Z 34008KT 04/M05 A3038 RMK A01 T00401054  RH  051%=      5-min Rain = 0
KGO1 091610Z 34010KT 04/M06 A3038 RMK A01 T00401056  RH  050%=      5-min Rain = 0
KGO1 091611Z 34009KT 04/M06 A3038 RMK A01 T00391056  RH  050%=      5-min Rain = 0
KGO1 091612Z 34009KT 04/M05 A3038 RMK A01 T00401053  RH  051%=      5-min Rain = 0
KGO1 091613Z 34010KT 04/M05 A3038 RMK A01 T00411053  RH  050%=      5-min Rain = 0
KGO1 091614Z 34008KT 04/M06 A3038 RMK A01 T00411055  RH  050%=      5-min Rain = 0
KGO1 091615Z 33010KT 04/M06 A3038 RMK A01 T00411055  RH  050%=      5-min Rain = 0
KGO1 091616Z 33011KT 04/M05 A3038 RMK A01 T00411054  RH  050%=      5-min Rain = 0
KGO1 091617Z 33009KT 04/M06 A3039 RMK A01 T00411056  RH  049%=      5-min Rain = 0
KGO1 091618Z 34009KT 04/M06 A3039 RMK A01 T00411055  RH  050%=      5-min Rain = 0
KGO1 091619Z 35009KT 04/M05 A3039 RMK A01 T00411053  RH  050%=      5-min Rain = 0
KGO1 091620Z 34008KT 04/M05 A3039 RMK A01 T00421054  RH  050%=      5-min Rain = 0
KGO1 091621Z 34007KT 04/M05 A3039 RMK A01 T00421052  RH  050%=      5-min Rain = 0
KGO1 091622Z 33009KT 04/M05 A3039 RMK A01 T00441051  RH  050%=      5-min Rain = 0
KGO1 091623Z 33008KT 05/M05 A3039 RMK A01 T00451051  RH  050%=      5-min Rain = 0
KGO1 091624Z 35007KT 05/M05 A3039 RMK A01 T00461050  RH  050%=      5-min Rain = 0
KGO1 091625Z 35007KT 05/M05 A3039 RMK A01 T00471051  RH  049%=      5-min Rain = 0
KGO1 091626Z 34006KT 05/M05 A3039 RMK A01 T00481050  RH  049%=      5-min Rain = 0
KGO1 091627Z 34008KT 05/M05 A3039 RMK A01 T00491050  RH  049%=      5-min Rain = 0
KGO1 091628Z 34009KT 05/M05 A3039 RMK A01 T00491052  RH  048%=      5-min Rain = 0
KGO1 091629Z 34008KT 05/M05 A3039 RMK A01 T00481053  RH  048%=      5-min Rain = 0
KGO1 091630Z 36008KT 05/M05 A3039 RMK A01 T00481052  RH  048%=      5-min Rain = 0
KGO1 091631Z 00008KT 05/M06 A3039 RMK A01 T00481055  RH  047%=      5-min Rain = 0
KGO1 091632Z 01008KT 05/M05 A3039 RMK A01 T00481053  RH  048%=      5-min Rain = 0
KGO1 091633Z 34009KT 05/M05 A3039 RMK A01 T00481054  RH  048%=      5-min Rain = 0
KGO1 091634Z 33009KT 05/M05 A3039 RMK A01 T00491054  RH  048%=      5-min Rain = 0
KGO1 091635Z 34007KT 05/M05 A3039 RMK A01 T00491053  RH  048%=      5-min Rain = 0
KGO1 091636Z 36007KT 05/M05 A3039 RMK A01 T00501051  RH  048%=      5-min Rain = 0
KGO1 091637Z 36008KT 05/M05 A3039 RMK A01 T00511052  RH  047%=      5-min Rain = 0
KGO1 091638Z 34009KT 05/M05 A3039 RMK A01 T00521051  RH  047%=      5-min Rain = 0
KGO1 091639Z 35008KT 05/M05 A3039 RMK A01 T00521052  RH  047%=      5-min Rain = 0
KGO1 091640Z 35010KT 05/M05 A3039 RMK A01 T00521052  RH  047%=      5-min Rain = 0
KGO1 091641Z 00010KT 05/M05 A3039 RMK A01 T00531051  RH  047%=      5-min Rain = 0
KGO1 091642Z 01008KT 05/M05 A3039 RMK A01 T00531054  RH  046%=      5-min Rain = 0
KGO1 091643Z 36008KT 05/M06 A3039 RMK A01 T00511055  RH  046%=      5-min Rain = 0
KGO1 091644Z 34008KT 05/M05 A3039 RMK A01 T00521051  RH  048%=      5-min Rain = 0
KGO1 091645Z 00008KT 06/M05 A3039 RMK A01 T00551051  RH  047%=      5-min Rain = 0
KGO1 091646Z 35009KT 06/M05 A3039 RMK A01 T00561050  RH  047%=      5-min Rain = 0
KGO1 091647Z 36010KT 06/M05 A3039 RMK A01 T00561051  RH  046%=      5-min Rain = 0
KGO1 091648Z 00010KT 06/M05 A3039 RMK A01 T00561052  RH  046%=      5-min Rain = 0
KGO1 091649Z 00008KT 06/M05 A3039 RMK A01 T00551052  RH  046%=      5-min Rain = 0
KGO1 091650Z 01008KT 06/M05 A3039 RMK A01 T00571048  RH  047%=      5-min Rain = 0
KGO1 091651Z 35009KT 06/M05 A3038 RMK A01 T00591049  RH  046%=      5-min Rain = 0
KGO1 091652Z 00007KT 06/M05 A3039 RMK A01 T00591049  RH  046%=      5-min Rain = 0
KGO1 091653Z 00009KT 06/M05 A3039 RMK A01 T00591050  RH  045%=      5-min Rain = 0
KGO1 091654Z 35010KT 06/M05 A3039 RMK A01 T00591051  RH  045%=      5-min Rain = 0
KGO1 091655Z 35007KT 06/M05 A3038 RMK A01 T00581052  RH  045%=      5-min Rain = 0
KGO1 091656Z 00005KT 06/M05 A3038 RMK A01 T00571052  RH  045%=      5-min Rain = 0
KGO1 091657Z 35008KT 06/M05 A3038 RMK A01 T00581048  RH  046%=      5-min Rain = 0
KGO1 091658Z 00008KT 06/M05 A3038 RMK A01 T00601049  RH  045%=      5-min Rain = 0
KGO1 091659Z 01008KT 06/M05 A3038 RMK A01 T00601050  RH  045%=      5-min Rain = 0
KGO1 091700Z 01011KT 06/M05 A3038 RMK A01 T00591051  RH  045%=      5-min Rain = 0
KGO1 091701Z 01009KT 06/M05 A3039 RMK A01 T00581053  RH  045%=      5-min Rain = 0
KGO1 091702Z 00009KT 06/M05 A3038 RMK A01 T00561052  RH  046%=      5-min Rain = 0
KGO1 091703Z 01008KT 06/M05 A3038 RMK A01 T00561052  RH  046%=      5-min Rain = 0
KGO1 091704Z 01008KT 06/M05 A3038 RMK A01 T00571048  RH  047%=      5-min Rain = 0
KGO1 091705Z 36010KT 06/M05 A3038 RMK A01 T00611046  RH  046%=      5-min Rain = 0
KGO1 091706Z 00008KT 06/M05 A3038 RMK A01 T00611050  RH  045%=      5-min Rain = 0
KGO1 091707Z 01007KT 06/M05 A3038 RMK A01 T00591051  RH  045%=      5-min Rain = 0
KGO1 091708Z 36006KT 06/M05 A3038 RMK A01 T00591048  RH  046%=      5-min Rain = 0
KGO1 091709Z 02010KT 06/M05 A3038 RMK A01 T00621047  RH  046%=      5-min Rain = 0
KGO1 091710Z 01009KT 06/M05 A3038 RMK A01 T00631049  RH  045%=      5-min Rain = 0
KGO1 091711Z 01007KT 06/M05 A3038 RMK A01 T00621048  RH  045%=      5-min Rain = 0
KGO1 091712Z 02009KT 06/M05 A3038 RMK A01 T00641046  RH  045%=      5-min Rain = 0
KGO1 091713Z 02008KT 06/M05 A3038 RMK A01 T00641048  RH  044%=      5-min Rain = 0
KGO1 091714Z 01008KT 06/M05 A3038 RMK A01 T00641048  RH  045%=      5-min Rain = 0
KGO1 091715Z 35007KT 06/M05 A3038 RMK A01 T00641047  RH  045%=      5-min Rain = 0
KGO1 091716Z 00010KT 06/M05 A3038 RMK A01 T00641047  RH  045%=      5-min Rain = 0
KGO1 091717Z 01010KT 07/M05 A3038 RMK A01 T00661046  RH  045%=      5-min Rain = 0
KGO1 091718Z 01008KT 07/M05 A3038 RMK A01 T00651049  RH  044%=      5-min Rain = 0
KGO1 091719Z 01007KT 06/M05 A3038 RMK A01 T00631049  RH  045%=      5-min Rain = 0
KGO1 091720Z 36008KT 06/M05 A3038 RMK A01 T00631049  RH  045%=      5-min Rain = 0
KGO1 091721Z 35008KT 06/M05 A3038 RMK A01 T00631047  RH  045%=      5-min Rain = 0
KGO1 091722Z 00008KT 06/M05 A3038 RMK A01 T00641048  RH  045%=      5-min Rain = 0
KGO1 091723Z 01009KT 06/M05 A3038 RMK A01 T00641048  RH  045%=      5-min Rain = 0
KGO1 091724Z 00007KT 06/M05 A3038 RMK A01 T00631048  RH  045%=      5-min Rain = 0
KGO1 091725Z 00009KT 06/M05 A3038 RMK A01 T00631047  RH  045%=      5-min Rain = 0
KGO1 091726Z 00009KT 07/M05 A3038 RMK A01 T00651046  RH  045%=      5-min Rain = 0
KGO1 091727Z 36009KT 07/M05 A3038 RMK A01 T00651047  RH  044%=      5-min Rain = 0
KGO1 091728Z 01006KT 07/M05 A3038 RMK A01 T00651047  RH  045%=      5-min Rain = 0
KGO1 091729Z 02007KT 07/M05 A3038 RMK A01 T00651049  RH  044%=      5-min Rain = 0
KGO1 091730Z 36009KT 06/M05 A3038 RMK A01 T00641049  RH  044%=      5-min Rain = 0
KGO1 091731Z 36008KT 07/M05 A3038 RMK A01 T00651046  RH  045%=      5-min Rain = 0
KGO1 091732Z 35006KT 07/M05 A3038 RMK A01 T00681045  RH  044%=      5-min Rain = 0
KGO1 091733Z 01008KT 07/M05 A3038 RMK A01 T00691045  RH  044%=      5-min Rain = 0
KGO1 091734Z 36007KT 07/M04 A3038 RMK A01 T00701043  RH  044%=      5-min Rain = 0
KGO1 091735Z 35006KT 07/M05 A3038 RMK A01 T00701046  RH  043%=      5-min Rain = 0
KGO1 091736Z 00004KT 07/M05 A3038 RMK A01 T00671049  RH  043%=      5-min Rain = 0
KGO1 091737Z 03008KT 07/M05 A3038 RMK A01 T00671047  RH  044%=      5-min Rain = 0
KGO1 091738Z 03007KT 07/M05 A3038 RMK A01 T00671048  RH  044%=      5-min Rain = 0
KGO1 091739Z 01008KT 07/M04 A3038 RMK A01 T00681044  RH  045%=      5-min Rain = 0
KGO1 091740Z 02008KT 07/M05 A3038 RMK A01 T00711045  RH  043%=      5-min Rain = 0
KGO1 091741Z 02007KT 07/M05 A3038 RMK A01 T00701046  RH  044%=      5-min Rain = 0
KGO1 091742Z 02006KT 07/M05 A3038 RMK A01 T00681047  RH  043%=      5-min Rain = 0
KGO1 091743Z 05006KT 07/M05 A3038 RMK A01 T00681046  RH  044%=      5-min Rain = 0
KGO1 091744Z 35005KT 07/M05 A3038 RMK A01 T00681047  RH  044%=      5-min Rain = 0
KGO1 091745Z 02005KT 07/M05 A3038 RMK A01 T00691046  RH  044%=      5-min Rain = 0
KGO1 091746Z 04006KT 07/M04 A3038 RMK A01 T00711043  RH  044%=      5-min Rain = 0
KGO1 091747Z 04005KT 07/M05 A3038 RMK A01 T00711045  RH  043%=      5-min Rain = 0
KGO1 091748Z 35006KT 07/M05 A3038 RMK A01 T00691047  RH  043%=      5-min Rain = 0
KGO1 091749Z 36006KT 07/M05 A3037 RMK A01 T00701045  RH  044%=      5-min Rain = 0
KGO1 091750Z 01007KT 07/M05 A3037 RMK A01 T00711046  RH  043%=      5-min Rain = 0
KGO1 091751Z 01005KT 07/M05 A3037 RMK A01 T00711048  RH  043%=      5-min Rain = 0
KGO1 091752Z 04007KT 07/M05 A3037 RMK A01 T00691047  RH  043%=      5-min Rain = 0
KGO1 091753Z 04007KT 07/M05 A3037 RMK A01 T00701045  RH  044%=      5-min Rain = 0
KGO1 091754Z 05005KT 07/M05 A3037 RMK A01 T00711045  RH  043%=      5-min Rain = 0
KGO1 091755Z 02005KT 07/M05 A3037 RMK A01 T00701047  RH  043%=      5-min Rain = 0
KGO1 091756Z 36004KT 07/M05 A3037 RMK A01 T00701047  RH  043%=      5-min Rain = 0
KGO1 091757Z 01004G9KT 07/M05 A3037 RMK A01 T00701048  RH  043%=      5-min Rain = 0
KGO1 091758Z 02008KT 07/M05 A3037 RMK A01 T00701047  RH  043%=      5-min Rain = 0
KGO1 091759Z 02007KT 07/M05 A3037 RMK A01 T00701046  RH  043%=      5-min Rain = 0
KGO1 091800Z 35007KT 07/M05 A3037 RMK A01 T00721045  RH  043%=      5-min Rain = 0
KGO1 091801Z 02005KT 07/M05 A3037 RMK A01 T00721046  RH  043%=      5-min Rain = 0
KGO1 091802Z 02007KT 07/M04 A3037 RMK A01 T00741041  RH  044%=      5-min Rain = 0
KGO1 091803Z 02005KT 08/M05 A3037 RMK A01 T00751045  RH  042%=      5-min Rain = 0
KGO1 091804Z 00004KT 07/M05 A3037 RMK A01 T00741045  RH  042%=      5-min Rain = 0
KGO1 091805Z 35005KT 08/M04 A3037 RMK A01 T00751042  RH  043%=      5-min Rain = 0
KGO1 091806Z 36006KT 08/M04 A3037 RMK A01 T00791042  RH  042%=      5-min Rain = 0
KGO1 091807Z 04007KT 08/M04 A3037 RMK A01 T00781044  RH  042%=      5-min Rain = 0
KGO1 091808Z 04005KT 08/M04 A3037 RMK A01 T00781044  RH  042%=      5-min Rain = 0
KGO1 091809Z 03008KT 08/M04 A3037 RMK A01 T00791041  RH  042%=      5-min Rain = 0
KGO1 091810Z 03008KT 08/M04 A3037 RMK A01 T00791044  RH  041%=      5-min Rain = 0
KGO1 091811Z 04004KT 08/M05 A3036 RMK A01 T00771046  RH  042%=      5-min Rain = 0
KGO1 091812Z 04006KT 08/M05 A3036 RMK A01 T00751046  RH  042%=      5-min Rain = 0
KGO1 091813Z 00006KT 08/M05 A3036 RMK A01 T00751046  RH  042%=      5-min Rain = 0
KGO1 091814Z 01006KT 08/M04 A3036 RMK A01 T00751043  RH  043%=      5-min Rain = 0
KGO1 091815Z 01004KT 08/M05 A3036 RMK A01 T00761046  RH  042%=      5-min Rain = 0
KGO1 091816Z 02006G11KT 07/M05 A3036 RMK A01 T00741046  RH  042%=      5-min Rain = 0
KGO1 091817Z 05006G12KT 08/M04 A3036 RMK A01 T00751043  RH  043%=      5-min Rain = 0
KGO1 091818Z 06005KT 08/M04 A3036 RMK A01 T00771043  RH  043%=      5-min Rain = 0
KGO1 091819Z 06005KT 08/M04 A3036 RMK A01 T00791039  RH  043%=      5-min Rain = 0
KGO1 091820Z 06007KT 08/M04 A3036 RMK A01 T00801043  RH  042%=      5-min Rain = 0
KGO1 091821Z 04008KT 08/M04 A3036 RMK A01 T00791043  RH  042%=      5-min Rain = 0
KGO1 091822Z 03005KT 08/M04 A3036 RMK A01 T00791042  RH  042%=      5-min Rain = 0
KGO1 091823Z 02004KT 08/M05 A3036 RMK A01 T00781045  RH  041%=      5-min Rain = 0
KGO1 091824Z 01006KT 08/M04 A3036 RMK A01 T00771044  RH  042%=      5-min Rain = 0
KGO1 091825Z 02007KT 08/M04 A3036 RMK A01 T00771044  RH  042%=      5-min Rain = 0
KGO1 091826Z 03006KT 08/M04 A3036 RMK A01 T00781041  RH  043%=      5-min Rain = 0
KGO1 091827Z 04006KT 08/M04 A3035 RMK A01 T00801042  RH  042%=      5-min Rain = 0
KGO1 091828Z 05006KT 08/M04 A3035 RMK A01 T00791043  RH  042%=      5-min Rain = 0
KGO1 091829Z 04005KT 08/M04 A3035 RMK A01 T00791039  RH  043%=      5-min Rain = 0
KGO1 091830Z 03006KT 08/M04 A3035 RMK A01 T00811039  RH  042%=      5-min Rain = 0
KGO1 091831Z 04008KT 08/M04 A3035 RMK A01 T00831041  RH  041%=      5-min Rain = 0
KGO1 091832Z 05007KT 08/M04 A3035 RMK A01 T00811044  RH  041%=      5-min Rain = 0
KGO1 091833Z 03007KT 08/M05 A3035 RMK A01 T00781045  RH  041%=      5-min Rain = 0
KGO1 091834Z 02005KT 08/M05 A3035 RMK A01 T00761045  RH  042%=      5-min Rain = 0
KGO1 091835Z 02004KT 08/M05 A3035 RMK A01 T00761045  RH  042%=      5-min Rain = 0
KGO1 091836Z 02004KT 08/M05 A3035 RMK A01 T00761045  RH  042%=      5-min Rain = 0
KGO1 091837Z 05004KT 08/M04 A3035 RMK A01 T00751044  RH  043%=      5-min Rain = 0
KGO1 091838Z 03005KT 08/M04 A3035 RMK A01 T00771039  RH  043%=      5-min Rain = 0
KGO1 091839Z 03004KT 08/M04 A3035 RMK A01 T00811040  RH  042%=      5-min Rain = 0
KGO1 091840Z 05005KT 08/M04 A3035 RMK A01 T00821040  RH  042%=      5-min Rain = 0
KGO1 091841Z 05008KT 08/M04 A3035 RMK A01 T00811041  RH  042%=      5-min Rain = 0
KGO1 091842Z 04007KT 08/M04 A3035 RMK A01 T00811041  RH  042%=      5-min Rain = 0
KGO1 091843Z 04007KT 08/M04 A3035 RMK A01 T00801043  RH  042%=      5-min Rain = 0
KGO1 091844Z 03007KT 08/M04 A3035 RMK A01 T00791042  RH  042%=      5-min Rain = 0
KGO1 091845Z 03006KT 08/M04 A3035 RMK A01 T00791041  RH  042%=      5-min Rain = 0
KGO1 091846Z 01004KT 08/M04 A3035 RMK A01 T00801043  RH  041%=      5-min Rain = 0
KGO1 091847Z 01002KT 08/M04 A3035 RMK A01 T00781043  RH  042%=      5-min Rain = 0
KGO1 091848Z 34002KT 08/M04 A3035 RMK A01 T00781043  RH  042%=      5-min Rain = 0
KGO1 091849Z 34002KT 08/M05 A3034 RMK A01 T00781045  RH  041%=      5-min Rain = 0
KGO1 091850Z 05001KT 08/M05 A3034 RMK A01 T00761045  RH  042%=      5-min Rain = 0
KGO1 091851Z 04006KT 08/M04 A3034 RMK A01 T00771042  RH  043%=      5-min Rain = 0
KGO1 091852Z 03006KT 08/M04 A3034 RMK A01 T00801041  RH  042%=      5-min Rain = 0
KGO1 091853Z 01002KT 08/M04 A3034 RMK A01 T00801042  RH  042%=      5-min Rain = 0
KGO1 091854Z 36002KT 08/M04 A3034 RMK A01 T00791044  RH  041%=      5-min Rain = 0
KGO1 091855Z 05004KT 08/M04 A3034 RMK A01 T00781044  RH  042%=      5-min Rain = 0
KGO1 091856Z 06003KT 08/M04 A3034 RMK A01 T00791041  RH  042%=      5-min Rain = 0
KGO1 091857Z 06005KT 08/M04 A3034 RMK A01 T00811041  RH  042%=      5-min Rain = 0
KGO1 091858Z 05006KT 08/M04 A3034 RMK A01 T00821040  RH  042%=      5-min Rain = 0
KGO1 091859Z 04006KT 08/M04 A3034 RMK A01 T00821040  RH  042%=      5-min Rain = 0
KGO1 091900Z 05006KT 08/M04 A3034 RMK A01 T00841039  RH  042%=      5-min Rain = 0
KGO1 091901Z 05004KT 08/M04 A3034 RMK A01 T00831042  RH  041%=      5-min Rain = 0
KGO1 091902Z 03005KT 08/M04 A3034 RMK A01 T00811042  RH  041%=      5-min Rain = 0
KGO1 091903Z 03004KT 08/M04 A3034 RMK A01 T00811042  RH  042%=      5-min Rain = 0
KGO1 091904Z 03003KT 08/M04 A3034 RMK A01 T00811042  RH  042%=      5-min Rain = 0
KGO1 091905Z 05001KT 08/M04 A3034 RMK A01 T00801043  RH  041%=      5-min Rain = 0
KGO1 091906Z 00000KT 08/M05 A3034 RMK A01 T00791045  RH  041%=      5-min Rain = 0
KGO1 091907Z 34001KT 08/M04 A3034 RMK A01 T00791044  RH  041%=      5-min Rain = 0
KGO1 091908Z 32001KT 08/M04 A3034 RMK A01 T00801044  RH  041%=      5-min Rain = 0
KGO1 091909Z 07001KT 08/M04 A3034 RMK A01 T00801044  RH  041%=      5-min Rain = 0
KGO1 091910Z 08004KT 08/M04 A3034 RMK A01 T00821037  RH  043%=      5-min Rain = 0
KGO1 091911Z 09005KT 09/M04 A3034 RMK A01 T00861037  RH  042%=      5-min Rain = 0
KGO1 091912Z 08004KT 09/M04 A3034 RMK A01 T00861040  RH  041%=      5-min Rain = 0
KGO1 091913Z 09002KT 08/M04 A3034 RMK A01 T00831043  RH  040%=      5-min Rain = 0
KGO1 091914Z 15003KT 08/M04 A3034 RMK A01 T00821042  RH  041%=      5-min Rain = 0
KGO1 091915Z 13003KT 08/M04 A3033 RMK A01 T00841041  RH  041%=      5-min Rain = 0
KGO1 091916Z 14003KT 09/M04 A3033 RMK A01 T00851041  RH  041%=      5-min Rain = 0
KGO1 091917Z 13004KT 09/M04 A3033 RMK A01 T00871040  RH  040%=      5-min Rain = 0
KGO1 091918Z 08007KT 09/M04 A3033 RMK A01 T00881038  RH  041%=      5-min Rain = 0
KGO1 091919Z 04006KT 09/M04 A3033 RMK A01 T00911036  RH  041%=      5-min Rain = 0
KGO1 091920Z 07004KT 09/M04 A3033 RMK A01 T00921037  RH  040%=      5-min Rain = 0
KGO1 091921Z 08005KT 09/M04 A3033 RMK A01 T00911039  RH  040%=      5-min Rain = 0
KGO1 091922Z 08004KT 09/M04 A3034 RMK A01 T00881042  RH  040%=      5-min Rain = 0
KGO1 091923Z 08003KT 09/M04 A3034 RMK A01 T00871041  RH  040%=      5-min Rain = 0
KGO1 091924Z 06002KT 09/M04 A3034 RMK A01 T00851043  RH  040%=      5-min Rain = 0
KGO1 091925Z 35001KT 09/M04 A3034 RMK A01 T00851041  RH  041%=      5-min Rain = 0
KGO1 091926Z 04003KT 09/M04 A3034 RMK A01 T00871036  RH  042%=      5-min Rain = 0
KGO1 091927Z 03004KT 09/M04 A3034 RMK A01 T00901039  RH  040%=      5-min Rain = 0
KGO1 091928Z 03002KT 09/M04 A3034 RMK A01 T00881043  RH  039%=      5-min Rain = 0
KGO1 091929Z 05003KT 09/M04 A3034 RMK A01 T00871042  RH  040%=      5-min Rain = 0
KGO1 091930Z 04004KT 09/M04 A3034 RMK A01 T00871042  RH  040%=      5-min Rain = 0
KGO1 091931Z 36004KT 09/M04 A3033 RMK A01 T00871042  RH  040%=      5-min Rain = 0
KGO1 091932Z 34001KT 09/M04 A3033 RMK A01 T00861044  RH  040%=      5-min Rain = 0
KGO1 091933Z 32000KT 09/M04 A3033 RMK A01 T00851043  RH  040%=      5-min Rain = 0
KGO1 091934Z 04003KT 09/M04 A3033 RMK A01 T00861041  RH  040%=      5-min Rain = 0
KGO1 091935Z 04005KT 09/M04 A3033 RMK A01 T00891037  RH  041%=      5-min Rain = 0
KGO1 091936Z 05005KT 09/M04 A3033 RMK A01 T00911041  RH  039%=      5-min Rain = 0
KGO1 091937Z 03005KT 09/M04 A3033 RMK A01 T00881042  RH  040%=      5-min Rain = 0
KGO1 091938Z 04004KT 09/M04 A3033 RMK A01 T00861043  RH  040%=      5-min Rain = 0
KGO1 091939Z 08003KT 09/M04 A3033 RMK A01 T00861042  RH  040%=      5-min Rain = 0
KGO1 091940Z 09004KT 09/M04 A3033 RMK A01 T00871040  RH  040%=      5-min Rain = 0
KGO1 091941Z 10004KT 09/M04 A3033 RMK A01 T00891039  RH  040%=      5-min Rain = 0
KGO1 091942Z 14001KT 09/M04 A3033 RMK A01 T00891042  RH  039%=      5-min Rain = 0
KGO1 091943Z 19001KT 09/M04 A3033 RMK A01 T00891043  RH  039%=      5-min Rain = 0
KGO1 091944Z 34001KT 09/M04 A3033 RMK A01 T00881040  RH  040%=      5-min Rain = 0
KGO1 091945Z 01001KT 09/M04 A3033 RMK A01 T00901038  RH  040%=      5-min Rain = 0
KGO1 091946Z 16001KT 09/M04 A3033 RMK A01 T00921040  RH  039%=      5-min Rain = 0
KGO1 091947Z 05004KT 09/M04 A3033 RMK A01 T00941039  RH  039%=      5-min Rain = 0
KGO1 091948Z 06003KT 09/M04 A3033 RMK A01 T00931040  RH  039%=      5-min Rain = 0
KGO1 091949Z 05002KT 09/M04 A3033 RMK A01 T00911042  RH  039%=      5-min Rain = 0
KGO1 091950Z 05003KT 09/M04 A3033 RMK A01 T00901041  RH  039%=      5-min Rain = 0
KGO1 091951Z 06003KT 09/M04 A3032 RMK A01 T00911041  RH  039%=      5-min Rain = 0
KGO1 091952Z 02004KT 09/M04 A3032 RMK A01 T00901041  RH  039%=      5-min Rain = 0
KGO1 091953Z 01004KT 09/M04 A3032 RMK A01 T00911040  RH  039%=      5-min Rain = 0
KGO1 091954Z 03003KT 09/M04 A3032 RMK A01 T00911041  RH  039%=      5-min Rain = 0
KGO1 091955Z 04003KT 09/M04 A3032 RMK A01 T00921041  RH  039%=      5-min Rain = 0
KGO1 091956Z 03005KT 09/M04 A3032 RMK A01 T00921039  RH  039%=      5-min Rain = 0
KGO1 091957Z 03007KT 09/M04 A3032 RMK A01 T00941041  RH  038%=      5-min Rain = 0
KGO1 091958Z 04005KT 09/M04 A3032 RMK A01 T00941042  RH  038%=      5-min Rain = 0
KGO1 091959Z 04006KT 09/M04 A3032 RMK A01 T00921042  RH  039%=      5-min Rain = 0
KGO1 092000Z 02005KT 09/M04 A3032 RMK A01 T00941039  RH  039%=      5-min Rain = 0
KGO1 092001Z 35006KT 10/M04 A3032 RMK A01 T00971037  RH  039%=      5-min Rain = 0
KGO1 092002Z 35004KT 10/M04 A3032 RMK A01 T00981041  RH  037%=      5-min Rain = 0
KGO1 092003Z 33003KT 09/M04 A3032 RMK A01 T00941043  RH  038%=      5-min Rain = 0
KGO1 092004Z 32002KT 09/M04 A3032 RMK A01 T00931041  RH  038%=      5-min Rain = 0
KGO1 092005Z 31002KT 09/M04 A3032 RMK A01 T00931043  RH  038%=      5-min Rain = 0
KGO1 092006Z 34003KT 09/M04 A3032 RMK A01 T00941044  RH  038%=      5-min Rain = 0
KGO1 092007Z 00003KT 09/M05 A3032 RMK A01 T00941045  RH  037%=      5-min Rain = 0
KGO1 092008Z 02006KT 10/M04 A3032 RMK A01 T00961041  RH  038%=      5-min Rain = 0
KGO1 092009Z 02006KT 10/M04 A3032 RMK A01 T00971042  RH  037%=      5-min Rain = 0
KGO1 092010Z 03005KT 10/M04 A3032 RMK A01 T00961043  RH  037%=      5-min Rain = 0
KGO1 092011Z 03003KT 09/M04 A3032 RMK A01 T00941044  RH  038%=      5-min Rain = 0
KGO1 092012Z 35005KT 09/M04 A3032 RMK A01 T00941041  RH  038%=      5-min Rain = 0
KGO1 092013Z 33003KT 09/M04 A3032 RMK A01 T00941042  RH  038%=      5-min Rain = 0
KGO1 092014Z 34002KT 10/M04 A3032 RMK A01 T00951041  RH  038%=      5-min Rain = 0
KGO1 092015Z 34003KT 10/M04 A3032 RMK A01 T00961041  RH  038%=      5-min Rain = 0
KGO1 092016Z 36002KT 10/M04 A3032 RMK A01 T00971041  RH  038%=      5-min Rain = 0
KGO1 092017Z 00005G10KT 10/M04 A3032 RMK A01 T00971041  RH  037%=      5-min Rain = 0
KGO1 092018Z 33006KT 10/M04 A3032 RMK A01 T00961042  RH  037%=      5-min Rain = 0
KGO1 092019Z 33005KT 10/M04 A3032 RMK A01 T00961041  RH  038%=      5-min Rain = 0
KGO1 092020Z 32004KT 10/M04 A3032 RMK A01 T00961041  RH  038%=      5-min Rain = 0
KGO1 092021Z 32002KT 10/M04 A3032 RMK A01 T00961041  RH  038%=      5-min Rain = 0
KGO1 092022Z 03004KT 10/M04 A3032 RMK A01 T00961041  RH  038%=      5-min Rain = 0
KGO1 092023Z 04004KT 10/M04 A3032 RMK A01 T00971042  RH  037%=      5-min Rain = 0
KGO1 092024Z 03002KT 10/M04 A3032 RMK A01 T00961042  RH  037%=      5-min Rain = 0
KGO1 092025Z 35005KT 10/M04 A3032 RMK A01 T00961042  RH  038%=      5-min Rain = 0
KGO1 092026Z 01006KT 10/M04 A3032 RMK A01 T00971043  RH  037%=      5-min Rain = 0
KGO1 092027Z 01007KT 10/M05 A3032 RMK A01 T00971045  RH  037%=      5-min Rain = 0
KGO1 092028Z 00005KT 09/M05 A3032 RMK A01 T00941046  RH  037%=      5-min Rain = 0
KGO1 092029Z 36004KT 09/M05 A3032 RMK A01 T00931045  RH  037%=      5-min Rain = 0
KGO1 092030Z 36003KT 09/M05 A3032 RMK A01 T00931047  RH  037%=      5-min Rain = 0
KGO1 092031Z 35002KT 09/M05 A3032 RMK A01 T00921047  RH  037%=      5-min Rain = 0
KGO1 092032Z 00003KT 09/M05 A3032 RMK A01 T00931045  RH  037%=      5-min Rain = 0
KGO1 092033Z 02002KT 09/M05 A3032 RMK A01 T00941046  RH  037%=      5-min Rain = 0
KGO1 092034Z 05002KT 09/M05 A3032 RMK A01 T00941047  RH  036%=      5-min Rain = 0
KGO1 092035Z 05002KT 09/M05 A3032 RMK A01 T00941048  RH  036%=      5-min Rain = 0
KGO1 092036Z 08002KT 09/M05 A3032 RMK A01 T00941049  RH  036%=      5-min Rain = 0
KGO1 092037Z 11001KT 09/M05 A3032 RMK A01 T00931049  RH  036%=      5-min Rain = 0
KGO1 092038Z 04002KT 09/M05 A3032 RMK A01 T00931048  RH  036%=      5-min Rain = 0
KGO1 092039Z 06005KT 10/M05 A3032 RMK A01 T00951046  RH  037%=      5-min Rain = 0
KGO1 092040Z 05005KT 10/M05 A3032 RMK A01 T00951048  RH  036%=      5-min Rain = 0
KGO1 092041Z 04005KT 10/M05 A3032 RMK A01 T00951050  RH  036%=      5-min Rain = 0
KGO1 092042Z 02005KT 09/M05 A3032 RMK A01 T00941049  RH  036%=      5-min Rain = 0
KGO1 092043Z 03005KT 10/M05 A3032 RMK A01 T00951048  RH  036%=      5-min Rain = 0
KGO1 092044Z 03004KT 10/M05 A3032 RMK A01 T00951049  RH  036%=      5-min Rain = 0
KGO1 092045Z 03005KT 10/M05 A3032 RMK A01 T00961048  RH  036%=      5-min Rain = 0
KGO1 092046Z 04006KT 10/M05 A3032 RMK A01 T00961048  RH  036%=      5-min Rain = 0
KGO1 092047Z 03006KT 10/M05 A3032 RMK A01 T00961048  RH  036%=      5-min Rain = 0
KGO1 092048Z 02004KT 10/M05 A3032 RMK A01 T00961049  RH  035%=      5-min Rain = 0
KGO1 092049Z 05003KT 10/M05 A3032 RMK A01 T00961048  RH  036%=      5-min Rain = 0
KGO1 092050Z 04003KT 10/M05 A3032 RMK A01 T00951049  RH  036%=      5-min Rain = 0
KGO1 092051Z 04001KT 09/M05 A3032 RMK A01 T00931050  RH  036%=      5-min Rain = 0
KGO1 092052Z 03001KT 09/M05 A3032 RMK A01 T00931048  RH  036%=      5-min Rain = 0
KGO1 092053Z 04002KT 09/M05 A3032 RMK A01 T00941048  RH  036%=      5-min Rain = 0
KGO1 092054Z 06003KT 10/M05 A3032 RMK A01 T00961047  RH  036%=      5-min Rain = 0
KGO1 092055Z 11002KT 10/M05 A3032 RMK A01 T00961048  RH  036%=      5-min Rain = 0
KGO1 092056Z 08003KT 10/M05 A3032 RMK A01 T00961048  RH  036%=      5-min Rain = 0
KGO1 092057Z 05003KT 10/M05 A3032 RMK A01 T00951048  RH  036%=      5-min Rain = 0
KGO1 092058Z 00005KT 10/M05 A3032 RMK A01 T00971047  RH  036%=      5-min Rain = 0
KGO1 092059Z 00004KT 10/M05 A3032 RMK A01 T00971048  RH  036%=      5-min Rain = 0
KGO1 092100Z 03005KT 10/M05 A3032 RMK A01 T00961048  RH  036%=      5-min Rain = 0
KGO1 092101Z 01005KT 10/M05 A3032 RMK A01 T00971045  RH  036%=      5-min Rain = 0
KGO1 092102Z 02005KT 10/M05 A3032 RMK A01 T00971046  RH  036%=      5-min Rain = 0
KGO1 092103Z 02004KT 10/M05 A3032 RMK A01 T00971047  RH  036%=      5-min Rain = 0
KGO1 092104Z 03004KT 10/M05 A3032 RMK A01 T00971047  RH  036%=      5-min Rain = 0
KGO1 092105Z 02002KT 10/M05 A3032 RMK A01 T00961050  RH  035%=      5-min Rain = 0
KGO1 092106Z 05000KT 10/M05 A3032 RMK A01 T00951049  RH  036%=      5-min Rain = 0
KGO1 092107Z 06002KT 10/M05 A3032 RMK A01 T00951047  RH  036%=      5-min Rain = 0
KGO1 092108Z 04002KT 10/M05 A3032 RMK A01 T00971047  RH  036%=      5-min Rain = 0
KGO1 092109Z 02004KT 10/M05 A3032 RMK A01 T00981047  RH  036%=      5-min Rain = 0
KGO1 092110Z 02003KT 10/M05 A3032 RMK A01 T00981047  RH  036%=      5-min Rain = 0
KGO1 092111Z 35006KT 10/M05 A3032 RMK A01 T00981047  RH  036%=      5-min Rain = 0
KGO1 092112Z 34005KT 10/M05 A3032 RMK A01 T00991047  RH  035%=      5-min Rain = 0
KGO1 092113Z 34004KT 10/M05 A3032 RMK A01 T01001047  RH  035%=      5-min Rain = 0
KGO1 092114Z 36002KT 10/M05 A3032 RMK A01 T01001049  RH  035%=      5-min Rain = 0
KGO1 092115Z 01001KT 10/M05 A3032 RMK A01 T00991048  RH  035%=      5-min Rain = 0
KGO1 092116Z 35000KT 10/M05 A3032 RMK A01 T00991047  RH  035%=      5-min Rain = 0
KGO1 092117Z 35002KT 10/M05 A3032 RMK A01 T01011045  RH  035%=      5-min Rain = 0
KGO1 092118Z 01002KT 10/M05 A3032 RMK A01 T01031045  RH  035%=      5-min Rain = 0
KGO1 092119Z 00004KT 10/M05 A3032 RMK A01 T01031045  RH  035%=      5-min Rain = 0
KGO1 092120Z 36003KT 10/M05 A3032 RMK A01 T01021048  RH  034%=      5-min Rain = 0
KGO1 092121Z 01001KT 10/M05 A3032 RMK A01 T00991049  RH  035%=      5-min Rain = 0
KGO1 092122Z 02001KT 10/M05 A3032 RMK A01 T00981049  RH  035%=      5-min Rain = 0
KGO1 092123Z 04002KT 10/M05 A3032 RMK A01 T00981048  RH  035%=      5-min Rain = 0
KGO1 092124Z 04000KT 10/M05 A3032 RMK A01 T00981048  RH  035%=      5-min Rain = 0
KGO1 092125Z 00000KT 10/M05 A3032 RMK A01 T00981049  RH  035%=      5-min Rain = 0
KGO1 092126Z 11000KT 10/M05 A3032 RMK A01 T00991049  RH  035%=      5-min Rain = 0
KGO1 092127Z 05001KT 10/M05 A3032 RMK A01 T01011047  RH  035%=      5-min Rain = 0
KGO1 092128Z 03001KT 10/M05 A3032 RMK A01 T01021048  RH  034%=      5-min Rain = 0
KGO1 092129Z 07001KT 10/M05 A3032 RMK A01 T01021049  RH  034%=      5-min Rain = 0
KGO1 092130Z 11003KT 10/M05 A3032 RMK A01 T01021051  RH  034%=      5-min Rain = 0
KGO1 092131Z 20004KT 10/M05 A3032 RMK A01 T01021049  RH  034%=      5-min Rain = 0
KGO1 092132Z 24004KT 10/M05 A3032 RMK A01 T01021049  RH  034%=      5-min Rain = 0
KGO1 092133Z 35004KT 10/M05 A3032 RMK A01 T01021049  RH  034%=      5-min Rain = 0
KGO1 092134Z 35003KT 10/M05 A3032 RMK A01 T01021052  RH  033%=      5-min Rain = 0
KGO1 092135Z 33003KT 10/M05 A3032 RMK A01 T01011052  RH  034%=      5-min Rain = 0
KGO1 092136Z 30002KT 10/M05 A3032 RMK A01 T01011052  RH  034%=      5-min Rain = 0
KGO1 092137Z 30001KT 10/M05 A3032 RMK A01 T01021052  RH  033%=      5-min Rain = 0
KGO1 092138Z 28001KT 10/M05 A3032 RMK A01 T01021053  RH  033%=      5-min Rain = 0
KGO1 092139Z 29002KT 10/M05 A3032 RMK A01 T01041053  RH  033%=      5-min Rain = 0
KGO1 092140Z 28001KT 10/M06 A3032 RMK A01 T01041055  RH  032%=      5-min Rain = 0
KGO1 092141Z 28000KT 10/M05 A3032 RMK A01 T01041054  RH  033%=      5-min Rain = 0
KGO1 092142Z 31001KT 10/M05 A3032 RMK A01 T01041052  RH  033%=      5-min Rain = 0
KGO1 092143Z 31003KT 11/M05 A3032 RMK A01 T01051053  RH  032%=      5-min Rain = 0
KGO1 092144Z 31003KT 11/M05 A3032 RMK A01 T01051052  RH  033%=      5-min Rain = 0
KGO1 092145Z 29002KT 10/M05 A3032 RMK A01 T01041053  RH  033%=      5-min Rain = 0
KGO1 092146Z 28002KT 10/M05 A3032 RMK A01 T01021054  RH  033%=      5-min Rain = 0
KGO1 092147Z 27000KT 10/M05 A3032 RMK A01 T01011054  RH  033%=      5-min Rain = 0
KGO1 092148Z 26003KT 10/M05 A3032 RMK A01 T01021053  RH  033%=      5-min Rain = 0
KGO1 092149Z 27001KT 10/M05 A3032 RMK A01 T01031053  RH  033%=      5-min Rain = 0
KGO1 092150Z 31002KT 10/M05 A3032 RMK A01 T01041053  RH  033%=      5-min Rain = 0
KGO1 092151Z 31002KT 10/M06 A3032 RMK A01 T01041061  RH  031%=      5-min Rain = 0
KGO1 092152Z 30002KT 10/M06 A3032 RMK A01 T01041062  RH  030%=      5-min Rain = 0
KGO1 092153Z 26003KT 11/M06 A3032 RMK A01 T01051063  RH  030%=      5-min Rain = 0
KGO1 092154Z 24003KT 11/M06 A3032 RMK A01 T01051063  RH  030%=      5-min Rain = 0
KGO1 092155Z 25002KT 11/M06 A3032 RMK A01 T01051064  RH  030%=      5-min Rain = 0
KGO1 092156Z 22002KT 11/M06 A3032 RMK A01 T01061064  RH  030%=      5-min Rain = 0
KGO1 092157Z 21001KT 11/M07 A3032 RMK A01 T01051066  RH  029%=      5-min Rain = 0
KGO1 092158Z 11001KT 11/M07 A3032 RMK A01 T01061066  RH  029%=      5-min Rain = 0
KGO1 092159Z 12003KT 11/M06 A3031 RMK A01 T01061061  RH  030%=      5-min Rain = 0
KGO1 092200Z 11003KT 10/M06 A3031 RMK A01 T01041059  RH  031%=      5-min Rain = 0
KGO1 092201Z 11002KT 10/M06 A3031 RMK A01 T01021058  RH  032%=      5-min Rain = 0
KGO1 092202Z 11003KT 10/M06 A3031 RMK A01 T01021057  RH  032%=      5-min Rain = 0
KGO1 092203Z 11002KT 10/M06 A3031 RMK A01 T01021057  RH  032%=      5-min Rain = 0
KGO1 092204Z 11002KT 10/M06 A3031 RMK A01 T01021057  RH  032%=      5-min Rain = 0
KGO1 092205Z 07003KT 10/M06 A3031 RMK A01 T01011057  RH  032%=      5-min Rain = 0
KGO1 092206Z 06003KT 10/M06 A3031 RMK A01 T01011058  RH  032%=      5-min Rain = 0
KGO1 092207Z 07003KT 10/M06 A3031 RMK A01 T01011057  RH  032%=      5-min Rain = 0
KGO1 092208Z 07001KT 10/M06 A3031 RMK A01 T01011059  RH  032%=      5-min Rain = 0
KGO1 092209Z 05001KT 10/M06 A3031 RMK A01 T01011057  RH  032%=      5-min Rain = 0
KGO1 092210Z 04001KT 10/M06 A3031 RMK A01 T01011061  RH  032%=      5-min Rain = 0
KGO1 092211Z 01000KT 10/M06 A3032 RMK A01 T01001064  RH  031%=      5-min Rain = 0
KGO1 092212Z 29000KT 10/M06 A3032 RMK A01 T01001062  RH  031%=      5-min Rain = 0
KGO1 092213Z 30001KT 10/M06 A3032 RMK A01 T01001061  RH  031%=      5-min Rain = 0
KGO1 092214Z 00000KT 10/M06 A3032 RMK A01 T01021062  RH  031%=      5-min Rain = 0
KGO1 092215Z 00000KT 10/M06 A3032 RMK A01 T01021062  RH  031%=      5-min Rain = 0
KGO1 092216Z 30000KT 11/M06 A3032 RMK A01 T01051058  RH  031%=      5-min Rain = 0
KGO1 092217Z 30001KT 11/M06 A3032 RMK A01 T01081057  RH  031%=      5-min Rain = 0
KGO1 092218Z 32003KT 11/M06 A3032 RMK A01 T01091059  RH  030%=      5-min Rain = 0
KGO1 092219Z 36002KT 11/M06 A3032 RMK A01 T01091061  RH  030%=      5-min Rain = 0
KGO1 092220Z 01003KT 11/M06 A3032 RMK A01 T01061062  RH  030%=      5-min Rain = 0
KGO1 092221Z 00003KT 11/M06 A3032 RMK A01 T01051062  RH  030%=      5-min Rain = 0
KGO1 092222Z 00001KT 10/M06 A3032 RMK A01 T01041063  RH  030%=      5-min Rain = 0
KGO1 092223Z 03004KT 10/M06 A3032 RMK A01 T01031063  RH  031%=      5-min Rain = 0
KGO1 092224Z 03004KT 10/M07 A3032 RMK A01 T01031065  RH  030%=      5-min Rain = 0
KGO1 092225Z 02003KT 10/M06 A3032 RMK A01 T01021064  RH  030%=      5-min Rain = 0
KGO1 092226Z 04003KT 10/M06 A3032 RMK A01 T01011064  RH  031%=      5-min Rain = 0
KGO1 092227Z 03004KT 10/M06 A3032 RMK A01 T01011064  RH  031%=      5-min Rain = 0
KGO1 092228Z 03003KT 10/M06 A3032 RMK A01 T01011063  RH  031%=      5-min Rain = 0
KGO1 092229Z 01003KT 10/M06 A3032 RMK A01 T01011062  RH  031%=      5-min Rain = 0
KGO1 092230Z 00003KT 10/M06 A3032 RMK A01 T01021063  RH  031%=      5-min Rain = 0
KGO1 092231Z 01003KT 10/M06 A3032 RMK A01 T01021064  RH  031%=      5-min Rain = 0
KGO1 092232Z 02003KT 10/M06 A3032 RMK A01 T01021064  RH  031%=      5-min Rain = 0
KGO1 092233Z 02002KT 10/M07 A3032 RMK A01 T01011065  RH  030%=      5-min Rain = 0
KGO1 092234Z 02003KT 10/M07 A3032 RMK A01 T01011065  RH  031%=      5-min Rain = 0
KGO1 092235Z 03002KT 10/M07 A3032 RMK A01 T01001066  RH  030%=      5-min Rain = 0
KGO1 092236Z 06002KT 10/M07 A3032 RMK A01 T01001065  RH  031%=      5-min Rain = 0
KGO1 092237Z 06002KT 10/M07 A3032 RMK A01 T01001065  RH  031%=      5-min Rain = 0
KGO1 092238Z 06002KT 10/M07 A3032 RMK A01 T01001066  RH  031%=      5-min Rain = 0
KGO1 092239Z 06001KT 10/M07 A3032 RMK A01 T00991066  RH  031%=      5-min Rain = 0
KGO1 092240Z 06001KT 10/M07 A3032 RMK A01 T00991066  RH  030%=      5-min Rain = 0
KGO1 092241Z 05001KT 10/M07 A3032 RMK A01 T01001066  RH  031%=      5-min Rain = 0
KGO1 092242Z 05000KT 10/M07 A3032 RMK A01 T00991065  RH  031%=      5-min Rain = 0
KGO1 092243Z 05000KT 10/M06 A3032 RMK A01 T01001062  RH  031%=      5-min Rain = 0
KGO1 092244Z 03001KT 10/M06 A3032 RMK A01 T01011063  RH  031%=      5-min Rain = 0
KGO1 092245Z 05002KT 10/M06 A3032 RMK A01 T01011064  RH  031%=      5-min Rain = 0
KGO1 092246Z 01004KT 10/M06 A3032 RMK A01 T01011063  RH  031%=      5-min Rain = 0
KGO1 092247Z 01004KT 10/M06 A3032 RMK A01 T01001064  RH  031%=      5-min Rain = 0
KGO1 092248Z 03003KT 10/M06 A3032 RMK A01 T00991064  RH  031%=      5-min Rain = 0
KGO1 092249Z 03003KT 10/M06 A3032 RMK A01 T00981063  RH  032%=      5-min Rain = 0
KGO1 092250Z 03003KT 10/M06 A3032 RMK A01 T00971064  RH  031%=      5-min Rain = 0
KGO1 092251Z 03004KT 10/M07 A3032 RMK A01 T00971065  RH  031%=      5-min Rain = 0
KGO1 092252Z 05003KT 10/M06 A3032 RMK A01 T00961063  RH  032%=      5-min Rain = 0
KGO1 092253Z 05005KT 10/M06 A3032 RMK A01 T00961062  RH  032%=      5-min Rain = 0
KGO1 092254Z 03004KT 10/M06 A3033 RMK A01 T00951062  RH  033%=      5-min Rain = 0
KGO1 092255Z 02005KT 09/M06 A3033 RMK A01 T00941062  RH  033%=      5-min Rain = 0
KGO1 092256Z 03004KT 09/M07 A3033 RMK A01 T00931065  RH  032%=      5-min Rain = 0
KGO1 092257Z 04002KT 09/M07 A3033 RMK A01 T00931066  RH  032%=      5-min Rain = 0
KGO1 092258Z 04002KT 09/M07 A3033 RMK A01 T00931066  RH  032%=      5-min Rain = 0
KGO1 092259Z 04003KT 09/M07 A3033 RMK A01 T00931065  RH  032%=      5-min Rain = 0
KGO1 092300Z 04003KT 09/M07 A3033 RMK A01 T00931065  RH  032%=      5-min Rain = 0
KGO1 092301Z 04003KT 09/M07 A3033 RMK A01 T00921065  RH  032%=      5-min Rain = 0
KGO1 092302Z 03003KT 09/M07 A3033 RMK A01 T00921065  RH  033%=      5-min Rain = 0
KGO1 092303Z 02005KT 09/M07 A3033 RMK A01 T00901065  RH  033%=      5-min Rain = 0
KGO1 092304Z 03005KT 09/M07 A3033 RMK A01 T00891066  RH  033%=      5-min Rain = 0
KGO1 092305Z 04004KT 09/M07 A3033 RMK A01 T00861065  RH  033%=      5-min Rain = 0
KGO1 092306Z 04004KT 09/M06 A3033 RMK A01 T00861064  RH  034%=      5-min Rain = 0
KGO1 092307Z 04004KT 09/M06 A3033 RMK A01 T00851064  RH  034%=      5-min Rain = 0
KGO1 092308Z 03005KT 08/M06 A3033 RMK A01 T00831064  RH  035%=      5-min Rain = 0
KGO1 092309Z 03004KT 08/M06 A3033 RMK A01 T00821064  RH  035%=      5-min Rain = 0
KGO1 092310Z 04005KT 08/M06 A3033 RMK A01 T00811064  RH  035%=      5-min Rain = 0
KGO1 092311Z 03005KT 08/M06 A3033 RMK A01 T00811063  RH  036%=      5-min Rain = 0
KGO1 092312Z 04005KT 08/M06 A3033 RMK A01 T00801063  RH  036%=      5-min Rain = 0
KGO1 092313Z 04005KT 08/M06 A3033 RMK A01 T00791062  RH  036%=      5-min Rain = 0
KGO1 092314Z 03004KT 08/M06 A3033 RMK A01 T00791063  RH  036%=      5-min Rain = 0
KGO1 092315Z 03005KT 08/M06 A3033 RMK A01 T00771063  RH  036%=      5-min Rain = 0
KGO1 092316Z 02005KT 08/M06 A3033 RMK A01 T00761063  RH  037%=      5-min Rain = 0
KGO1 092317Z 02005KT 07/M06 A3033 RMK A01 T00741063  RH  037%=      5-min Rain = 0
KGO1 092318Z 03005KT 07/M06 A3033 RMK A01 T00721063  RH  038%=      5-min Rain = 0
KGO1 092319Z 03005KT 07/M06 A3033 RMK A01 T00711063  RH  038%=      5-min Rain = 0
KGO1 092320Z 03005KT 07/M06 A3033 RMK A01 T00701063  RH  038%=      5-min Rain = 0
KGO1 092321Z 03005KT 07/M06 A3033 RMK A01 T00691063  RH  039%=      5-min Rain = 0
KGO1 092322Z 03005KT 07/M06 A3033 RMK A01 T00681061  RH  039%=      5-min Rain = 0
KGO1 092323Z 04004KT 07/M06 A3033 RMK A01 T00671061  RH  040%=      5-min Rain = 0
KGO1 092324Z 04005KT 07/M06 A3033 RMK A01 T00661060  RH  040%=      5-min Rain = 0
KGO1 092325Z 04004KT 07/M06 A3033 RMK A01 T00661060  RH  040%=      5-min Rain = 0
KGO1 092326Z 04005KT 07/M06 A3033 RMK A01 T00661060  RH  040%=      5-min Rain = 0
KGO1 092327Z 04004KT 07/M06 A3033 RMK A01 T00651060  RH  040%=      5-min Rain = 0
KGO1 092328Z 04004KT 07/M06 A3033 RMK A01 T00651060  RH  040%=      5-min Rain = 0
KGO1 092329Z 04004KT 07/M06 A3033 RMK A01 T00651059  RH  040%=      5-min Rain = 0
KGO1 092330Z 04004KT 07/M06 A3033 RMK A01 T00661059  RH  040%=      5-min Rain = 0
KGO1 092331Z 04004KT 07/M06 A3033 RMK A01 T00661059  RH  040%=      5-min Rain = 0
KGO1 092332Z 04004KT 07/M06 A3033 RMK A01 T00661059  RH  040%=      5-min Rain = 0
KGO1 092333Z 04003KT 07/M06 A3033 RMK A01 T00671059  RH  040%=      5-min Rain = 0
KGO1 092334Z 04003KT 07/M06 A3033 RMK A01 T00671060  RH  040%=      5-min Rain = 0
KGO1 092335Z 04003KT 07/M06 A3033 RMK A01 T00671060  RH  040%=      5-min Rain = 0
KGO1 092336Z 04003KT 07/M06 A3033 RMK A01 T00671060  RH  040%=      5-min Rain = 0
KGO1 092337Z 04003KT 07/M06 A3033 RMK A01 T00661060  RH  040%=      5-min Rain = 0
KGO1 092338Z 04003KT 07/M06 A3033 RMK A01 T00661060  RH  040%=      5-min Rain = 0
KGO1 092339Z 04004KT 07/M06 A3033 RMK A01 T00661060  RH  040%=      5-min Rain = 0
KGO1 092340Z 04004KT 06/M06 A3033 RMK A01 T00641060  RH  041%=      5-min Rain = 0
KGO1 092341Z 04004KT 06/M06 A3033 RMK A01 T00611061  RH  041%=      5-min Rain = 0
KGO1 092342Z 03003KT 06/M06 A3033 RMK A01 T00581062  RH  042%=      5-min Rain = 0
KGO1 092343Z 04003KT 06/M06 A3033 RMK A01 T00561062  RH  042%=      5-min Rain = 0
KGO1 092344Z 03003KT 06/M06 A3033 RMK A01 T00551061  RH  043%=      5-min Rain = 0
KGO1 092345Z 03004KT 06/M06 A3033 RMK A01 T00551061  RH  043%=      5-min Rain = 0
KGO1 092346Z 03004KT 06/M06 A3033 RMK A01 T00551061  RH  043%=      5-min Rain = 0
KGO1 092347Z 03003KT 06/M06 A3033 RMK A01 T00551063  RH  042%=      5-min Rain = 0
KGO1 092348Z 02003KT 05/M06 A3033 RMK A01 T00531063  RH  043%=      5-min Rain = 0
KGO1 092349Z 03003KT 05/M06 A3033 RMK A01 T00521060  RH  044%=      5-min Rain = 0
KGO1 092350Z 03004KT 05/M06 A3033 RMK A01 T00521060  RH  044%=      5-min Rain = 0
KGO1 092351Z 03004KT 05/M06 A3033 RMK A01 T00531060  RH  044%=      5-min Rain = 0
KGO1 092352Z 03004KT 05/M06 A3033 RMK A01 T00531060  RH  044%=      5-min Rain = 0
KGO1 092353Z 03004KT 05/M06 A3033 RMK A01 T00531060  RH  044%=      5-min Rain = 0
KGO1 092354Z 03003KT 05/M06 A3033 RMK A01 T00541060  RH  044%=      5-min Rain = 0
KGO1 092355Z 03003KT 05/M06 A3033 RMK A01 T00541060  RH  043%=      5-min Rain = 0
KGO1 092356Z 03003KT 06/M06 A3034 RMK A01 T00551060  RH  043%=      5-min Rain = 0
KGO1 092357Z 03003KT 06/M06 A3034 RMK A01 T00551060  RH  043%=      5-min Rain = 0
KGO1 092358Z 03003KT 06/M06 A3034 RMK A01 T00551061  RH  043%=      5-min Rain = 0
KGO1 092359Z 02003KT 06/M06 A3034 RMK A01 T00551061  RH  043%=      5-min Rain = 0
KGO1 100000Z 02002KT 05/M06 A3034 RMK A01 T00541061  RH  043%=      5-min Rain = 0
KGO1 100001Z 03002KT 06/M06 A3034 RMK A01 T00551061  RH  043%=      5-min Rain = 0
KGO1 100002Z 03002KT 06/M06 A3034 RMK A01 T00561060  RH  043%=      5-min Rain = 0
KGO1 100003Z 03002KT 06/M06 A3034 RMK A01 T00561060  RH  043%=      5-min Rain = 0
KGO1 100004Z 03002KT 06/M06 A3034 RMK A01 T00561061  RH  043%=      5-min Rain = 0
KGO1 100005Z 03002KT 06/M06 A3034 RMK A01 T00561061  RH  043%=      5-min Rain = 0
KGO1 100006Z 03002KT 06/M06 A3034 RMK A01 T00551061  RH  043%=      5-min Rain = 0
KGO1 100007Z 02002KT 06/M06 A3034 RMK A01 T00551061  RH  043%=      5-min Rain = 0
KGO1 100008Z 02002KT 06/M06 A3034 RMK A01 T00551061  RH  043%=      5-min Rain = 0
KGO1 100009Z 02003KT 06/M06 A3034 RMK A01 T00551061  RH  043%=      5-min Rain = 0
KGO1 100010Z 02003KT 06/M06 A3034 RMK A01 T00551061  RH  043%=      5-min Rain = 0
KGO1 100011Z 02003KT 05/M06 A3034 RMK A01 T00541061  RH  043%=      5-min Rain = 0
KGO1 100012Z 01003KT 05/M06 A3034 RMK A01 T00541061  RH  043%=      5-min Rain = 0
KGO1 100013Z 01003KT 05/M06 A3034 RMK A01 T00531061  RH  043%=      5-min Rain = 0
KGO1 100014Z 01003KT 05/M06 A3034 RMK A01 T00521061  RH  044%=      5-min Rain = 0
KGO1 100015Z 00003KT 05/M06 A3034 RMK A01 T00521061  RH  044%=      5-min Rain = 0
KGO1 100016Z 01003KT 05/M06 A3035 RMK A01 T00511061  RH  044%=      5-min Rain = 0
KGO1 100017Z 00004KT 05/M06 A3035 RMK A01 T00481062  RH  045%=      5-min Rain = 0
KGO1 100018Z 00004KT 05/M06 A3035 RMK A01 T00471062  RH  045%=      5-min Rain = 0
KGO1 100019Z 00004KT 05/M06 A3035 RMK A01 T00461063  RH  045%=      5-min Rain = 0
KGO1 100020Z 00004KT 04/M06 A3035 RMK A01 T00431063  RH  046%=      5-min Rain = 0
KGO1 100021Z 35004KT 04/M06 A3035 RMK A01 T00411063  RH  047%=      5-min Rain = 0
KGO1 100022Z 35004KT 04/M06 A3035 RMK A01 T00401062  RH  047%=      5-min Rain = 0
KGO1 100023Z 35004KT 04/M06 A3035 RMK A01 T00401062  RH  047%=      5-min Rain = 0
KGO1 100024Z 35004KT 04/M06 A3035 RMK A01 T00401061  RH  048%=      5-min Rain = 0
KGO1 100025Z 34004KT 04/M06 A3035 RMK A01 T00371062  RH  048%=      5-min Rain = 0
KGO1 100026Z 34004KT 04/M06 A3035 RMK A01 T00351062  RH  049%=      5-min Rain = 0
KGO1 100027Z 34004KT 03/M06 A3035 RMK A01 T00331064  RH  049%=      5-min Rain = 0
KGO1 100028Z 35004KT 03/M06 A3035 RMK A01 T00311064  RH  050%=      5-min Rain = 0
KGO1 100029Z 35005KT 03/M07 A3035 RMK A01 T00291065  RH  050%=      5-min Rain = 0
KGO1 100030Z 35005KT 03/M07 A3035 RMK A01 T00271065  RH  051%=      5-min Rain = 0
KGO1 100031Z 35005KT 03/M07 A3035 RMK A01 T00251066  RH  051%=      5-min Rain = 0
KGO1 100032Z 34004KT 02/M07 A3035 RMK A01 T00241067  RH  051%=      5-min Rain = 0
KGO1 100033Z 34005KT 03/M07 A3035 RMK A01 T00251066  RH  051%=      5-min Rain = 0
KGO1 100034Z 34004KT 03/M07 A3035 RMK A01 T00261065  RH  051%=      5-min Rain = 0
KGO1 100035Z 34004KT 03/M07 A3035 RMK A01 T00291065  RH  050%=      5-min Rain = 0
KGO1 100036Z 34003KT 03/M07 A3035 RMK A01 T00311065  RH  049%=      5-min Rain = 0
KGO1 100037Z 34003KT 03/M07 A3035 RMK A01 T00311065  RH  049%=      5-min Rain = 0
KGO1 100038Z 34003KT 03/M07 A3035 RMK A01 T00311065  RH  050%=      5-min Rain = 0
KGO1 100039Z 34003KT 03/M07 A3035 RMK A01 T00301065  RH  050%=      5-min Rain = 0
KGO1 100040Z 33003KT 03/M07 A3035 RMK A01 T00301065  RH  050%=      5-min Rain = 0
KGO1 100041Z 34003KT 03/M07 A3035 RMK A01 T00301065  RH  050%=      5-min Rain = 0
KGO1 100042Z 34003KT 03/M07 A3035 RMK A01 T00301065  RH  050%=      5-min Rain = 0
KGO1 100043Z 34003KT 03/M07 A3035 RMK A01 T00301065  RH  050%=      5-min Rain = 0
KGO1 100044Z 34003KT 03/M07 A3035 RMK A01 T00301065  RH  050%=      5-min Rain = 0
KGO1 100045Z 34003KT 03/M07 A3035 RMK A01 T00301065  RH  050%=      5-min Rain = 0
KGO1 100046Z 34003KT 03/M07 A3035 RMK A01 T00291065  RH  050%=      5-min Rain = 0
KGO1 100047Z 34003KT 03/M07 A3035 RMK A01 T00291065  RH  050%=      5-min Rain = 0
KGO1 100048Z 35003KT 03/M07 A3035 RMK A01 T00281066  RH  050%=      5-min Rain = 0
KGO1 100049Z 34003KT 03/M07 A3035 RMK A01 T00281066  RH  050%=      5-min Rain = 0
KGO1 100050Z 34003KT 03/M07 A3035 RMK A01 T00281066  RH  050%=      5-min Rain = 0
KGO1 100051Z 34003KT 03/M07 A3035 RMK A01 T00281067  RH  050%=      5-min Rain = 0
KGO1 100052Z 33003KT 03/M07 A3035 RMK A01 T00281066  RH  050%=      5-min Rain = 0
KGO1 100053Z 33003KT 03/M07 A3035 RMK A01 T00281066  RH  050%=      5-min Rain = 0
KGO1 100054Z 32003KT 03/M07 A3035 RMK A01 T00271066  RH  050%=      5-min Rain = 0
KGO1 100055Z 32003KT 03/M07 A3035 RMK A01 T00271067  RH  050%=      5-min Rain = 0
KGO1 100056Z 32003KT 03/M07 A3035 RMK A01 T00261067  RH  050%=      5-min Rain = 0
KGO1 100057Z 33002KT 03/M07 A3035 RMK A01 T00251067  RH  051%=      5-min Rain = 0
KGO1 100058Z 32003KT 02/M07 A3035 RMK A01 T00241067  RH  051%=      5-min Rain = 0
KGO1 100059Z 32002KT 02/M07 A3035 RMK A01 T00241068  RH  051%=      5-min Rain = 0
KGO1 100100Z 32002KT 02/M07 A3035 RMK A01 T00231069  RH  050%=      5-min Rain = 0
KGO1 100101Z 32002KT 02/M07 A3035 RMK A01 T00211070  RH  051%=      5-min Rain = 0
KGO1 100102Z 33002KT 02/M07 A3035 RMK A01 T00201070  RH  051%=      5-min Rain = 0
KGO1 100103Z 33002KT 02/M07 A3035 RMK A01 T00191070  RH  052%=      5-min Rain = 0
KGO1 100104Z 33002KT 02/M07 A3035 RMK A01 T00181071  RH  052%=      5-min Rain = 0
KGO1 100105Z 34003KT 02/M07 A3035 RMK A01 T00181072  RH  051%=      5-min Rain = 0
KGO1 100106Z 34003KT 02/M07 A3035 RMK A01 T00171072  RH  052%=      5-min Rain = 0
KGO1 100107Z 35003KT 02/M07 A3035 RMK A01 T00151074  RH  052%=      5-min Rain = 0
KGO1 100108Z 35003KT 01/M08 A3035 RMK A01 T00121075  RH  052%=      5-min Rain = 0
KGO1 100109Z 35003KT 01/M08 A3035 RMK A01 T00091075  RH  053%=      5-min Rain = 0
KGO1 100110Z 35003KT 01/M07 A3035 RMK A01 T00091073  RH  054%=      5-min Rain = 0
KGO1 100111Z 34002KT 01/M07 A3035 RMK A01 T00111071  RH  055%=      5-min Rain = 0
KGO1 100112Z 34003KT 01/M07 A3035 RMK A01 T00141070  RH  054%=      5-min Rain = 0
KGO1 100113Z 33003KT 02/M07 A3035 RMK A01 T00161070  RH  052%=      5-min Rain = 0
KGO1 100114Z 33003KT 02/M07 A3035 RMK A01 T00191071  RH  051%=      5-min Rain = 0
KGO1 100115Z 33003KT 02/M07 A3035 RMK A01 T00201072  RH  050%=      5-min Rain = 0
KGO1 100116Z 34004KT 02/M07 A3035 RMK A01 T00191074  RH  050%=      5-min Rain = 0
KGO1 100117Z 33004KT 02/M07 A3035 RMK A01 T00191074  RH  050%=      5-min Rain = 0
KGO1 100118Z 33004KT 02/M08 A3036 RMK A01 T00171076  RH  050%=      5-min Rain = 0
KGO1 100119Z 34004KT 02/M08 A3036 RMK A01 T00151075  RH  051%=      5-min Rain = 0
KGO1 100120Z 34004KT 02/M07 A3036 RMK A01 T00151074  RH  051%=      5-min Rain = 0
KGO1 100121Z 34004KT 02/M07 A3036 RMK A01 T00161074  RH  051%=      5-min Rain = 0
KGO1 100122Z 34004KT 02/M07 A3036 RMK A01 T00161074  RH  051%=      5-min Rain = 0
KGO1 100123Z 34005KT 02/M07 A3036 RMK A01 T00161073  RH  051%=      5-min Rain = 0
KGO1 100124Z 34005KT 02/M07 A3036 RMK A01 T00151074  RH  052%=      5-min Rain = 0
KGO1 100125Z 34005KT 01/M07 A3036 RMK A01 T00131074  RH  052%=      5-min Rain = 0
KGO1 100126Z 33004KT 01/M07 A3036 RMK A01 T00121074  RH  052%=      5-min Rain = 0
KGO1 100127Z 33004KT 01/M07 A3036 RMK A01 T00131074  RH  052%=      5-min Rain = 0
KGO1 100128Z 33004KT 01/M07 A3036 RMK A01 T00131074  RH  052%=      5-min Rain = 0
KGO1 100129Z 33004KT 01/M07 A3036 RMK A01 T00141074  RH  052%=      5-min Rain = 0
KGO1 100130Z 33004KT 01/M07 A3036 RMK A01 T00141074  RH  052%=      5-min Rain = 0
KGO1 100131Z 33004KT 01/M08 A3036 RMK A01 T00141075  RH  052%=      5-min Rain = 0
KGO1 100132Z 33004KT 01/M08 A3036 RMK A01 T00131075  RH  052%=      5-min Rain = 0
KGO1 100133Z 33004KT 01/M08 A3036 RMK A01 T00121075  RH  052%=      5-min Rain = 0
KGO1 100134Z 33003KT 01/M08 A3036 RMK A01 T00121075  RH  052%=      5-min Rain = 0
KGO1 100135Z 33003KT 01/M08 A3036 RMK A01 T00091076  RH  053%=      5-min Rain = 0
KGO1 100136Z 33004KT 01/M08 A3036 RMK A01 T00081076  RH  053%=      5-min Rain = 0
KGO1 100137Z 32004KT 01/M08 A3036 RMK A01 T00091075  RH  053%=      5-min Rain = 0
KGO1 100138Z 32004KT 01/M08 A3036 RMK A01 T00091076  RH  053%=      5-min Rain = 0
KGO1 100139Z 32004KT 01/M08 A3036 RMK A01 T00101075  RH  053%=      5-min Rain = 0
KGO1 100140Z 32004KT 01/M08 A3036 RMK A01 T00111076  RH  053%=      5-min Rain = 0
KGO1 100141Z 32004KT 01/M08 A3036 RMK A01 T00091077  RH  052%=      5-min Rain = 0
KGO1 100142Z 32004KT 01/M08 A3036 RMK A01 T00051080  RH  053%=      5-min Rain = 0
KGO1 100143Z 31004KT 00/M08 A3036 RMK A01 T00021082  RH  054%=      5-min Rain = 0
KGO1 100144Z 31004KT M00/M08 A3036 RMK A01 T10021083  RH  054%=      5-min Rain = 0
KGO1 100145Z 32005KT M00/M08 A3036 RMK A01 T10031083  RH  055%=      5-min Rain = 0
KGO1 100146Z 32005KT M00/M08 A3036 RMK A01 T10041081  RH  056%=      5-min Rain = 0
KGO1 100147Z 32005KT M01/M08 A3037 RMK A01 T10051082  RH  056%=      5-min Rain = 0
KGO1 100148Z 32005KT M01/M08 A3037 RMK A01 T10061082  RH  056%=      5-min Rain = 0
KGO1 100149Z 32005KT M01/M08 A3037 RMK A01 T10071082  RH  057%=      5-min Rain = 0
KGO1 100150Z 31005KT M01/M08 A3037 RMK A01 T10061081  RH  057%=      5-min Rain = 0
KGO1 100151Z 32005KT M01/M08 A3037 RMK A01 T10061081  RH  057%=      5-min Rain = 0
KGO1 100152Z 32004KT M01/M08 A3036 RMK A01 T10061082  RH  056%=      5-min Rain = 0
KGO1 100153Z 32004KT M01/M08 A3036 RMK A01 T10061083  RH  056%=      5-min Rain = 0
KGO1 100154Z 32005KT M01/M08 A3036 RMK A01 T10071083  RH  056%=      5-min Rain = 0
KGO1 100155Z 32005KT M01/M08 A3036 RMK A01 T10071083  RH  056%=      5-min Rain = 0
KGO1 100156Z 32005KT M01/M08 A3036 RMK A01 T10081082  RH  057%=      5-min Rain = 0
KGO1 100157Z 32005KT M01/M08 A3036 RMK A01 T10081082  RH  057%=      5-min Rain = 0
KGO1 100158Z 32005KT M01/M08 A3036 RMK A01 T10081081  RH  058%=      5-min Rain = 0
KGO1 100159Z 33005KT M01/M08 A3036 RMK A01 T10081081  RH  058%=      5-min Rain = 0
KGO1 100200Z 33005KT M01/M08 A3036 RMK A01 T10081081  RH  058%=      5-min Rain = 0
KGO1 100201Z 33005KT M01/M08 A3036 RMK A01 T10081081  RH  058%=      5-min Rain = 0
KGO1 100202Z 33004KT M01/M08 A3036 RMK A01 T10091081  RH  058%=      5-min Rain = 0
KGO1 100203Z 33004KT M01/M08 A3036 RMK A01 T10081080  RH  058%=      5-min Rain = 0
KGO1 100204Z 33005KT M01/M08 A3036 RMK A01 T10071078  RH  058%=      5-min Rain = 0
KGO1 100205Z 33005KT M01/M08 A3036 RMK A01 T10051077  RH  058%=      5-min Rain = 0
KGO1 100206Z 33004KT M00/M08 A3036 RMK A01 T10031076  RH  058%=      5-min Rain = 0
KGO1 100207Z 32004KT 00/08 A3036 RMK A01 T00000-76  RH  056%=      5-min Rain = 0
KGO1 100208Z 32004KT 00/M08 A3036 RMK A01 T00021077  RH  055%=      5-min Rain = 0
KGO1 100209Z 32004KT 00/M08 A3036 RMK A01 T00041077  RH  054%=      5-min Rain = 0
KGO1 100210Z 32004KT 01/M08 A3036 RMK A01 T00051078  RH  054%=      5-min Rain = 0
KGO1 100211Z 32005KT 00/M08 A3036 RMK A01 T00031080  RH  054%=      5-min Rain = 0
KGO1 100212Z 32005KT 00/M08 A3036 RMK A01 T00011081  RH  054%=      5-min Rain = 0
KGO1 100213Z 32005KT 00/08 A3037 RMK A01 T00-00-81  RH  055%=      5-min Rain = 0
KGO1 100214Z 32005KT 00/08 A3037 RMK A01 T00000-80  RH  055%=      5-min Rain = 0
KGO1 100215Z 32005KT 00/M08 A3037 RMK A01 T00011080  RH  055%=      5-min Rain = 0
KGO1 100216Z 32004KT 00/M08 A3036 RMK A01 T00021079  RH  054%=      5-min Rain = 0
KGO1 100217Z 32004KT 00/M08 A3036 RMK A01 T00031079  RH  054%=      5-min Rain = 0
KGO1 100218Z 31003KT 00/M08 A3036 RMK A01 T00031079  RH  054%=      5-min Rain = 0
KGO1 100219Z 31003KT 00/M08 A3036 RMK A01 T00011081  RH  054%=      5-min Rain = 0
KGO1 100220Z 31003KT M00/M08 A3036 RMK A01 T10021084  RH  054%=      5-min Rain = 0
KGO1 100221Z 30003KT M01/M09 A3036 RMK A01 T10061085  RH  055%=      5-min Rain = 0
KGO1 100222Z 30003KT M01/M09 A3036 RMK A01 T10081086  RH  056%=      5-min Rain = 0
KGO1 100223Z 30003KT M01/M09 A3036 RMK A01 T10111086  RH  057%=      5-min Rain = 0
KGO1 100224Z 29003KT M01/M09 A3036 RMK A01 T10131085  RH  058%=      5-min Rain = 0
KGO1 100225Z 29003KT M01/M08 A3036 RMK A01 T10141084  RH  059%=      5-min Rain = 0
KGO1 100226Z 28003KT M01/M08 A3036 RMK A01 T10141083  RH  059%=      5-min Rain = 0
KGO1 100227Z 28003KT M02/M08 A3036 RMK A01 T10151082  RH  060%=      5-min Rain = 0
KGO1 100228Z 28003KT M02/M08 A3036 RMK A01 T10151082  RH  060%=      5-min Rain = 0
KGO1 100229Z 28003KT M02/M08 A3036 RMK A01 T10151081  RH  061%=      5-min Rain = 0
KGO1 100230Z 28004KT M02/M08 A3036 RMK A01 T10151081  RH  061%=      5-min Rain = 0
KGO1 100231Z 28004KT M01/M08 A3036 RMK A01 T10141081  RH  060%=      5-min Rain = 0
KGO1 100232Z 28003KT M01/M08 A3036 RMK A01 T10141081  RH  060%=      5-min Rain = 0
KGO1 100233Z 29003KT M01/M08 A3036 RMK A01 T10131081  RH  060%=      5-min Rain = 0
KGO1 100234Z 29003KT M01/M08 A3036 RMK A01 T10121081  RH  060%=      5-min Rain = 0
KGO1 100235Z 29003KT M01/M08 A3036 RMK A01 T10131081  RH  060%=      5-min Rain = 0
KGO1 100236Z 30004KT M01/M08 A3036 RMK A01 T10141082  RH  060%=      5-min Rain = 0
KGO1 100237Z 30004KT M02/M08 A3036 RMK A01 T10161083  RH  060%=      5-min Rain = 0
KGO1 100238Z 30004KT M02/M08 A3036 RMK A01 T10181083  RH  061%=      5-min Rain = 0
KGO1 100239Z 30004KT M02/M08 A3036 RMK A01 T10201083  RH  062%=      5-min Rain = 0
KGO1 100240Z 30004KT M02/M08 A3036 RMK A01 T10211083  RH  063%=      5-min Rain = 0
KGO1 100241Z 29004KT M02/M08 A3036 RMK A01 T10231084  RH  063%=      5-min Rain = 0
KGO1 100242Z 29004KT M02/M08 A3036 RMK A01 T10241084  RH  064%=      5-min Rain = 0
KGO1 100243Z 29004KT M03/M08 A3036 RMK A01 T10251083  RH  064%=      5-min Rain = 0
KGO1 100244Z 29004KT M03/M08 A3036 RMK A01 T10251083  RH  064%=      5-min Rain = 0
KGO1 100245Z 29004KT M03/M08 A3036 RMK A01 T10251083  RH  064%=      5-min Rain = 0
KGO1 100246Z 29004KT M02/M08 A3036 RMK A01 T10241082  RH  064%=      5-min Rain = 0
KGO1 100247Z 29004KT M02/M08 A3036 RMK A01 T10221081  RH  064%=      5-min Rain = 0
KGO1 100248Z 29004KT M02/M08 A3036 RMK A01 T10201081  RH  063%=      5-min Rain = 0
KGO1 100249Z 29004KT M02/M08 A3036 RMK A01 T10201081  RH  063%=      5-min Rain = 0
KGO1 100250Z 29004KT M02/M08 A3036 RMK A01 T10191081  RH  063%=      5-min Rain = 0
KGO1 100251Z 29004KT M02/M08 A3037 RMK A01 T10191081  RH  062%=      5-min Rain = 0
KGO1 100252Z 29004KT M02/M08 A3037 RMK A01 T10181081  RH  062%=      5-min Rain = 0
KGO1 100253Z 29005KT M02/M08 A3037 RMK A01 T10181082  RH  062%=      5-min Rain = 0
KGO1 100254Z 29005KT M02/M08 A3037 RMK A01 T10191082  RH  062%=      5-min Rain = 0
KGO1 100255Z 29005KT M02/M08 A3037 RMK A01 T10191082  RH  062%=      5-min Rain = 0
KGO1 100256Z 29005KT M02/M08 A3037 RMK A01 T10201082  RH  062%=      5-min Rain = 0
KGO1 100257Z 29005KT M02/M08 A3037 RMK A01 T10201083  RH  062%=      5-min Rain = 0
KGO1 100258Z 29005KT M02/M08 A3037 RMK A01 T10211083  RH  063%=      5-min Rain = 0
KGO1 100259Z 29005KT M02/M08 A3037 RMK A01 T10221083  RH  063%=      5-min Rain = 0
KGO1 100300Z 29005KT M02/M08 A3037 RMK A01 T10231082  RH  064%=      5-min Rain = 0
KGO1 100301Z 29006KT M02/M08 A3037 RMK A01 T10241082  RH  064%=      5-min Rain = 0
KGO1 100302Z 29006KT M03/M08 A3037 RMK A01 T10251082  RH  065%=      5-min Rain = 0
KGO1 100303Z 29006KT M03/M08 A3037 RMK A01 T10261082  RH  065%=      5-min Rain = 0
KGO1 100304Z 29006KT M03/M08 A3037 RMK A01 T10271082  RH  066%=      5-min Rain = 0
KGO1 100305Z 30006KT M03/M08 A3037 RMK A01 T10271081  RH  066%=      5-min Rain = 0
KGO1 100306Z 30006KT M03/M08 A3037 RMK A01 T10281082  RH  067%=      5-min Rain = 0
KGO1 100307Z 30007KT M03/M08 A3037 RMK A01 T10291081  RH  067%=      5-min Rain = 0
KGO1 100308Z 29007KT M03/M08 A3037 RMK A01 T10291082  RH  067%=      5-min Rain = 0
KGO1 100309Z 29006KT M03/M08 A3037 RMK A01 T10291082  RH  067%=      5-min Rain = 0
KGO1 100310Z 29006KT M03/M08 A3037 RMK A01 T10291081  RH  067%=      5-min Rain = 0
KGO1 100311Z 30006KT M03/M08 A3037 RMK A01 T10291081  RH  067%=      5-min Rain = 0
KGO1 100312Z 30006KT M03/M08 A3037 RMK A01 T10281080  RH  067%=      5-min Rain = 0
KGO1 100313Z 29006KT M03/M08 A3037 RMK A01 T10281081  RH  067%=      5-min Rain = 0
KGO1 100314Z 30005KT M03/M08 A3037 RMK A01 T10281081  RH  067%=      5-min Rain = 0
KGO1 100315Z 30005KT M03/M08 A3036 RMK A01 T10281080  RH  067%=      5-min Rain = 0
KGO1 100316Z 29005KT M03/M08 A3036 RMK A01 T10271080  RH  067%=      5-min Rain = 0
KGO1 100317Z 29005KT M03/M08 A3037 RMK A01 T10271080  RH  067%=      5-min Rain = 0
KGO1 100318Z 29006KT M03/M08 A3037 RMK A01 T10261080  RH  066%=      5-min Rain = 0
KGO1 100319Z 29007KT M03/M08 A3037 RMK A01 T10271082  RH  066%=      5-min Rain = 0
KGO1 100320Z 28007KT M03/M08 A3037 RMK A01 T10281083  RH  066%=      5-min Rain = 0
KGO1 100321Z 28007KT M03/M08 A3036 RMK A01 T10301083  RH  067%=      5-min Rain = 0
KGO1 100322Z 28006KT M03/M08 A3036 RMK A01 T10311082  RH  068%=      5-min Rain = 0
KGO1 100323Z 28006KT M03/M08 A3036 RMK A01 T10311082  RH  068%=      5-min Rain = 0
KGO1 100324Z 28006KT M03/M08 A3036 RMK A01 T10311082  RH  068%=      5-min Rain = 0
KGO1 100325Z 28006KT M03/M08 A3036 RMK A01 T10291081  RH  068%=      5-min Rain = 0
KGO1 100326Z 28006KT M03/M08 A3036 RMK A01 T10291081  RH  067%=      5-min Rain = 0
KGO1 100327Z 28006KT M03/M08 A3036 RMK A01 T10281081  RH  067%=      5-min Rain = 0
KGO1 100328Z 28006KT M03/M08 A3036 RMK A01 T10281080  RH  067%=      5-min Rain = 0
KGO1 100329Z 28006KT M03/M08 A3036 RMK A01 T10281081  RH  067%=      5-min Rain = 0
KGO1 100330Z 28006KT M03/M08 A3037 RMK A01 T10291081  RH  067%=      5-min Rain = 0
KGO1 100331Z 28006KT M03/M08 A3037 RMK A01 T10301081  RH  068%=      5-min Rain = 0
KGO1 100332Z 28007KT M03/M08 A3037 RMK A01 T10311082  RH  068%=      5-min Rain = 0
KGO1 100333Z 28006KT M03/M08 A3037 RMK A01 T10321082  RH  068%=      5-min Rain = 0
KGO1 100334Z 28006KT M03/M08 A3037 RMK A01 T10331082  RH  069%=      5-min Rain = 0
KGO1 100335Z 28007KT M03/M08 A3037 RMK A01 T10331082  RH  069%=      5-min Rain = 0
KGO1 100336Z 29007KT M03/M08 A3037 RMK A01 T10341082  RH  069%=      5-min Rain = 0
KGO1 100337Z 29007KT M03/M08 A3037 RMK A01 T10341082  RH  070%=      5-min Rain = 0
KGO1 100338Z 29007KT M04/M08 A3037 RMK A01 T10351081  RH  070%=      5-min Rain = 0
KGO1 100339Z 29007KT M04/M08 A3037 RMK A01 T10351081  RH  070%=      5-min Rain = 0
KGO1 100340Z 29008KT M04/M08 A3037 RMK A01 T10351081  RH  070%=      5-min Rain = 0
KGO1 100341Z 29008KT M04/M08 A3037 RMK A01 T10351081  RH  070%=      5-min Rain = 0
KGO1 100342Z 29008KT M04/M08 A3037 RMK A01 T10351081  RH  070%=      5-min Rain = 0
KGO1 100343Z 29008KT M03/M08 A3037 RMK A01 T10341080  RH  070%=      5-min Rain = 0
KGO1 100344Z 29008KT M03/M08 A3037 RMK A01 T10321080  RH  070%=      5-min Rain = 0
KGO1 100345Z 29008KT M03/M08 A3037 RMK A01 T10311080  RH  069%=      5-min Rain = 0
KGO1 100346Z 29008KT M03/M08 A3037 RMK A01 T10311081  RH  068%=      5-min Rain = 0
KGO1 100347Z 29007KT M03/M08 A3037 RMK A01 T10311082  RH  068%=      5-min Rain = 0
KGO1 100348Z 29007KT M03/M08 A3037 RMK A01 T10301082  RH  068%=      5-min Rain = 0
KGO1 100349Z 29008KT M03/M08 A3037 RMK A01 T10311082  RH  068%=      5-min Rain = 0
KGO1 100350Z 29008KT M03/M08 A3037 RMK A01 T10301082  RH  068%=      5-min Rain = 0
KGO1 100351Z 29008KT M03/M08 A3037 RMK A01 T10301082  RH  067%=      5-min Rain = 0
KGO1 100352Z 29008KT M03/M08 A3037 RMK A01 T10301082  RH  067%=      5-min Rain = 0
KGO1 100353Z 29007KT M03/M08 A3037 RMK A01 T10301082  RH  067%=      5-min Rain = 0
KGO1 100354Z 29007KT M03/M08 A3037 RMK A01 T10301082  RH  068%=      5-min Rain = 0
KGO1 100355Z 29007KT M03/M08 A3037 RMK A01 T10301081  RH  068%=      5-min Rain = 0
KGO1 100356Z 29007KT M03/M08 A3037 RMK A01 T10301080  RH  068%=      5-min Rain = 0
KGO1 100357Z 29007KT M03/M08 A3037 RMK A01 T10291080  RH  068%=      5-min Rain = 0
KGO1 100358Z 29007KT M03/M08 A3037 RMK A01 T10281080  RH  067%=      5-min Rain = 0
KGO1 100359Z 29007KT M03/M08 A3037 RMK A01 T10271080  RH  067%=      5-min Rain = 0
KGO1 100400Z 30006KT M03/M08 A3037 RMK A01 T10271080  RH  067%=      5-min Rain = 0
KGO1 100401Z 30006KT M03/M08 A3037 RMK A01 T10261080  RH  067%=      5-min Rain = 0
KGO1 100402Z 30006KT M03/M08 A3037 RMK A01 T10261080  RH  066%=      5-min Rain = 0
KGO1 100403Z 30006KT M03/M08 A3037 RMK A01 T10261080  RH  066%=      5-min Rain = 0
KGO1 100404Z 30006KT M03/M08 A3037 RMK A01 T10261080  RH  066%=      5-min Rain = 0
KGO1 100405Z 30006KT M03/M08 A3037 RMK A01 T10261081  RH  066%=      5-min Rain = 0
KGO1 100406Z 30006KT M03/M08 A3037 RMK A01 T10261081  RH  066%=      5-min Rain = 0
KGO1 100407Z 30005KT M03/M08 A3037 RMK A01 T10271081  RH  066%=      5-min Rain = 0
KGO1 100408Z 30005KT M03/M08 A3037 RMK A01 T10281082  RH  066%=      5-min Rain = 0
KGO1 100409Z 30005KT M03/M08 A3037 RMK A01 T10281082  RH  066%=      5-min Rain = 0
KGO1 100410Z 30005KT M03/M08 A3037 RMK A01 T10281083  RH  066%=      5-min Rain = 0
KGO1 100411Z 30005KT M03/M08 A3037 RMK A01 T10291083  RH  066%=      5-min Rain = 0
KGO1 100412Z 29005KT M03/M08 A3037 RMK A01 T10301083  RH  067%=      5-min Rain = 0
KGO1 100413Z 29006KT M03/M08 A3037 RMK A01 T10301082  RH  067%=      5-min Rain = 0
KGO1 100414Z 29005KT M03/M08 A3037 RMK A01 T10311083  RH  068%=      5-min Rain = 0
KGO1 100415Z 29006KT M03/M08 A3037 RMK A01 T10331083  RH  068%=      5-min Rain = 0
KGO1 100416Z 29006KT M03/M08 A3037 RMK A01 T10341084  RH  068%=      5-min Rain = 0
KGO1 100417Z 28006KT M04/M09 A3037 RMK A01 T10351085  RH  068%=      5-min Rain = 0
KGO1 100418Z 28006KT M04/M08 A3037 RMK A01 T10351083  RH  069%=      5-min Rain = 0
KGO1 100419Z 28006KT M04/M08 A3037 RMK A01 T10351082  RH  070%=      5-min Rain = 0
KGO1 100420Z 28006KT M04/M08 A3037 RMK A01 T10351082  RH  070%=      5-min Rain = 0
KGO1 100421Z 28006KT M03/M08 A3037 RMK A01 T10341082  RH  070%=      5-min Rain = 0
KGO1 100422Z 28006KT M03/M08 A3037 RMK A01 T10341081  RH  070%=      5-min Rain = 0
KGO1 100423Z 28006KT M03/M08 A3037 RMK A01 T10341082  RH  069%=      5-min Rain = 0
KGO1 100424Z 28006KT M03/M08 A3037 RMK A01 T10341082  RH  069%=      5-min Rain = 0
KGO1 100425Z 28005KT M03/M08 A3037 RMK A01 T10341083  RH  069%=      5-min Rain = 0
KGO1 100426Z 28005KT M03/M08 A3037 RMK A01 T10341083  RH  069%=      5-min Rain = 0
KGO1 100427Z 28005KT M03/M08 A3037 RMK A01 T10341083  RH  069%=      5-min Rain = 0
KGO1 100428Z 28006KT M03/M08 A3037 RMK A01 T10341083  RH  069%=      5-min Rain = 0
KGO1 100429Z 28005KT M03/M08 A3037 RMK A01 T10341082  RH  069%=      5-min Rain = 0
KGO1 100430Z 27005KT M04/M08 A3037 RMK A01 T10351083  RH  069%=      5-min Rain = 0
KGO1 100431Z 27006KT M04/M08 A3037 RMK A01 T10351083  RH  069%=      5-min Rain = 0
KGO1 100432Z 27006KT M04/M08 A3037 RMK A01 T10351083  RH  070%=      5-min Rain = 0
KGO1 100433Z 27006KT M04/M08 A3037 RMK A01 T10351083  RH  070%=      5-min Rain = 0
KGO1 100434Z 27006KT M04/M08 A3037 RMK A01 T10361083  RH  070%=      5-min Rain = 0
KGO1 100435Z 27006KT M04/M08 A3037 RMK A01 T10351082  RH  070%=      5-min Rain = 0
KGO1 100436Z 27007KT M03/M08 A3037 RMK A01 T10341081  RH  070%=      5-min Rain = 0
KGO1 100437Z 27006KT M03/M08 A3037 RMK A01 T10331080  RH  070%=      5-min Rain = 0
KGO1 100438Z 27006KT M03/M08 A3037 RMK A01 T10331081  RH  070%=      5-min Rain = 0
KGO1 100439Z 27006KT M03/M08 A3037 RMK A01 T10331081  RH  069%=      5-min Rain = 0
KGO1 100440Z 27006KT M03/M08 A3037 RMK A01 T10331081  RH  069%=      5-min Rain = 0
KGO1 100441Z 28006KT M03/M08 A3037 RMK A01 T10331081  RH  069%=      5-min Rain = 0
KGO1 100442Z 28006KT M03/M08 A3037 RMK A01 T10331081  RH  070%=      5-min Rain = 0
KGO1 100443Z 28006KT M03/M08 A3037 RMK A01 T10331081  RH  070%=      5-min Rain = 0
KGO1 100444Z 28006KT M03/M08 A3037 RMK A01 T10341081  RH  069%=      5-min Rain = 0
KGO1 100445Z 28006KT M04/M08 A3037 RMK A01 T10351083  RH  069%=      5-min Rain = 0
KGO1 100446Z 28006KT M04/M08 A3037 RMK A01 T10351083  RH  069%=      5-min Rain = 0
KGO1 100447Z 28006KT M04/M08 A3037 RMK A01 T10351083  RH  070%=      5-min Rain = 0
KGO1 100448Z 28006KT M04/M08 A3037 RMK A01 T10361083  RH  070%=      5-min Rain = 0
KGO1 100449Z 28007KT M04/M08 A3037 RMK A01 T10361082  RH  070%=      5-min Rain = 0
KGO1 100450Z 29007KT M04/M08 A3037 RMK A01 T10351082  RH  070%=      5-min Rain = 0
KGO1 100451Z 29007KT M03/M08 A3037 RMK A01 T10341081  RH  070%=      5-min Rain = 0
KGO1 100452Z 29007KT M04/M08 A3037 RMK A01 T10351082  RH  070%=      5-min Rain = 0
KGO1 100453Z 28007KT M04/M08 A3037 RMK A01 T10351082  RH  070%=      5-min Rain = 0
KGO1 100454Z 28007KT M04/M08 A3036 RMK A01 T10351082  RH  070%=      5-min Rain = 0
KGO1 100455Z 28007KT M03/M08 A3036 RMK A01 T10341082  RH  070%=      5-min Rain = 0
KGO1 100456Z 28007KT M03/M08 A3036 RMK A01 T10341082  RH  069%=      5-min Rain = 0
KGO1 100457Z 28006KT M03/M08 A3036 RMK A01 T10331082  RH  069%=      5-min Rain = 0
KGO1 100458Z 27006KT M03/M08 A3036 RMK A01 T10321082  RH  069%=      5-min Rain = 0
KGO1 100459Z 27006KT M03/M08 A3036 RMK A01 T10321082  RH  069%=      5-min Rain = 0
KGO1 100500Z 27006KT M03/M08 A3036 RMK A01 T10331082  RH  069%=      5-min Rain = 0
KGO1 100501Z 27006KT M03/M08 A3036 RMK A01 T10321081  RH  069%=      5-min Rain = 0
KGO1 100502Z 27006KT M03/M08 A3036 RMK A01 T10311081  RH  069%=      5-min Rain = 0
KGO1 100503Z 26006KT M03/M08 A3036 RMK A01 T10311082  RH  068%=      5-min Rain = 0
KGO1 100504Z 26006KT M03/M08 A3037 RMK A01 T10321083  RH  068%=      5-min Rain = 0
KGO1 100505Z 26007KT M03/M08 A3037 RMK A01 T10331083  RH  068%=      5-min Rain = 0
KGO1 100506Z 27006KT M03/M08 A3037 RMK A01 T10341082  RH  069%=      5-min Rain = 0
KGO1 100507Z 28006KT M03/M08 A3037 RMK A01 T10331082  RH  069%=      5-min Rain = 0
KGO1 100508Z 28006KT M03/M08 A3037 RMK A01 T10331081  RH  069%=      5-min Rain = 0
KGO1 100509Z 28005KT M03/M08 A3037 RMK A01 T10341082  RH  070%=      5-min Rain = 0
KGO1 100510Z 28005KT M03/M08 A3037 RMK A01 T10341082  RH  070%=      5-min Rain = 0
KGO1 100511Z 28005KT M04/M08 A3037 RMK A01 T10351082  RH  070%=      5-min Rain = 0
KGO1 100512Z 28005KT M04/M08 A3037 RMK A01 T10351082  RH  070%=      5-min Rain = 0
KGO1 100513Z 28005KT M04/M08 A3037 RMK A01 T10351082  RH  070%=      5-min Rain = 0
KGO1 100514Z 28006KT M04/M08 A3037 RMK A01 T10361082  RH  070%=      5-min Rain = 0
KGO1 100515Z 28006KT M04/M08 A3037 RMK A01 T10371083  RH  070%=      5-min Rain = 0
KGO1 100516Z 29006KT M04/M08 A3037 RMK A01 T10381083  RH  071%=      5-min Rain = 0
KGO1 100517Z 29006KT M04/M08 A3037 RMK A01 T10391083  RH  072%=      5-min Rain = 0
KGO1 100518Z 29007KT M04/M08 A3037 RMK A01 T10391082  RH  072%=      5-min Rain = 0
KGO1 100519Z 29007KT M04/M08 A3037 RMK A01 T10401082  RH  072%=      5-min Rain = 0
KGO1 100520Z 29007KT M04/M08 A3037 RMK A01 T10401082  RH  073%=      5-min Rain = 0
KGO1 100521Z 28008KT M04/M08 A3037 RMK A01 T10411083  RH  073%=      5-min Rain = 0
KGO1 100522Z 28007KT M04/M08 A3037 RMK A01 T10411082  RH  073%=      5-min Rain = 0
KGO1 100523Z 28007KT M04/M08 A3037 RMK A01 T10421083  RH  073%=      5-min Rain = 0
KGO1 100524Z 28007KT M04/M08 A3037 RMK A01 T10421083  RH  073%=      5-min Rain = 0
KGO1 100525Z 27006KT M04/M08 A3037 RMK A01 T10421083  RH  073%=      5-min Rain = 0
KGO1 100526Z 27006KT M04/M08 A3037 RMK A01 T10421083  RH  073%=      5-min Rain = 0
KGO1 100527Z 27006KT M04/M08 A3037 RMK A01 T10421083  RH  073%=      5-min Rain = 0
KGO1 100528Z 27006KT M04/M08 A3037 RMK A01 T10421083  RH  073%=      5-min Rain = 0
KGO1 100529Z 27007KT M04/M08 A3037 RMK A01 T10411083  RH  073%=      5-min Rain = 0
KGO1 100530Z 27007KT M04/M08 A3037 RMK A01 T10401083  RH  072%=      5-min Rain = 0
KGO1 100531Z 27006KT M04/M08 A3037 RMK A01 T10401083  RH  072%=      5-min Rain = 0
KGO1 100532Z 27006KT M04/M08 A3037 RMK A01 T10401083  RH  072%=      5-min Rain = 0
KGO1 100533Z 27006KT M04/M08 A3037 RMK A01 T10391082  RH  072%=      5-min Rain = 0
KGO1 100534Z 27006KT M04/M08 A3037 RMK A01 T10391081  RH  073%=      5-min Rain = 0
KGO1 100535Z 28007KT M04/M08 A3037 RMK A01 T10391081  RH  073%=      5-min Rain = 0
KGO1 100536Z 28007KT M04/M08 A3037 RMK A01 T10381081  RH  073%=      5-min Rain = 0
KGO1 100537Z 28006KT M04/M08 A3037 RMK A01 T10381081  RH  072%=      5-min Rain = 0
KGO1 100538Z 28006KT M04/M08 A3037 RMK A01 T10381081  RH  072%=      5-min Rain = 0
KGO1 100539Z 28006KT M04/M08 A3037 RMK A01 T10371081  RH  072%=      5-min Rain = 0
KGO1 100540Z 28006KT M04/M08 A3037 RMK A01 T10351080  RH  071%=      5-min Rain = 0
KGO1 100541Z 28005KT M03/M08 A3037 RMK A01 T10341080  RH  070%=      5-min Rain = 0
KGO1 100542Z 27005KT M03/M08 A3037 RMK A01 T10331080  RH  070%=      5-min Rain = 0
KGO1 100543Z 27006KT M03/M08 A3037 RMK A01 T10311079  RH  070%=      5-min Rain = 0
KGO1 100544Z 27006KT M03/M08 A3037 RMK A01 T10291079  RH  069%=      5-min Rain = 0
KGO1 100545Z 27005KT M03/M08 A3036 RMK A01 T10271078  RH  068%=      5-min Rain = 0
KGO1 100546Z 27005KT M03/M08 A3036 RMK A01 T10261078  RH  067%=      5-min Rain = 0
KGO1 100547Z 27005KT M03/M08 A3036 RMK A01 T10251078  RH  067%=      5-min Rain = 0
KGO1 100548Z 27005KT M03/M08 A3036 RMK A01 T10261079  RH  067%=      5-min Rain = 0
KGO1 100549Z 28005KT M03/M08 A3036 RMK A01 T10261079  RH  067%=      5-min Rain = 0
KGO1 100550Z 27004KT M03/M08 A3036 RMK A01 T10261080  RH  067%=      5-min Rain = 0
KGO1 100551Z 27004KT M03/M08 A3036 RMK A01 T10261080  RH  067%=      5-min Rain = 0
KGO1 100552Z 27004KT M03/M08 A3036 RMK A01 T10261080  RH  066%=      5-min Rain = 0
KGO1 100553Z 27004KT M03/M08 A3036 RMK A01 T10261080  RH  066%=      5-min Rain = 0
KGO1 100554Z 28005KT M03/M08 A3036 RMK A01 T10261080  RH  066%=      5-min Rain = 0
KGO1 100555Z 28005KT M03/M08 A3036 RMK A01 T10271081  RH  067%=      5-min Rain = 0
KGO1 100556Z 28005KT M03/M08 A3036 RMK A01 T10281081  RH  067%=      5-min Rain = 0
KGO1 100557Z 28006KT M03/M08 A3036 RMK A01 T10291082  RH  067%=      5-min Rain = 0
KGO1 100558Z 28005KT M03/M08 A3036 RMK A01 T10311082  RH  068%=      5-min Rain = 0
KGO1 100559Z 28006KT M03/M08 A3036 RMK A01 T10321082  RH  068%=      5-min Rain = 0

Page generated in 0.0938 seconds.